GFSNE_sfc_thetae_000.txt.gz
Theta_e
282 282 282 283 283 284 284 284 282 278 279 283 283 285 286 287 289 288 288 292 294 295 295 295 295 296 297 298 298 299 299 299 300 301 301 302 303 304
283 281 281 282 283 284 284 284 283 281 278 283 284 285 285 286 288 288 287 291 292 293 294 293 293 294 295 296 296 297 297 296 298 299 301 301 302 303
281 281 282 282 283 283 284 283 283 282 280 282 284 285 284 284 286 286 287 287 288 291 292 292 293 293 294 294 294 294 295 296 297 298 299 300 300 301
281 281 282 284 282 282 283 282 282 283 281 279 283 283 284 285 286 285 286 286 285 288 290 291 291 291 292 292 292 293 294 294 294 295 296 298 299 300
281 281 281 281 281 282 282 282 283 284 284 282 281 283 283 285 282 282 282 282 283 287 289 290 290 291 291 292 293 292 291 292 293 293 294 295 296 297
282 282 281 281 281 282 283 283 283 281 281 281 281 282 284 282 280 278 278 280 280 283 286 287 289 289 290 290 290 289 290 290 292 293 293 294 295 296
281 281 282 284 287 286 284 283 282 282 283 282 280 281 279 278 277 278 277 279 280 283 281 281 282 282 283 286 287 288 289 290 291 293 293 293 294 295
279 280 281 285 284 288 288 288 287 283 281 281 280 278 277 277 278 277 278 278 274 281 279 279 281 280 281 282 287 288 289 289 290 290 291 292 293 294
280 280 281 283 284 282 285 287 287 287 287 282 278 277 277 278 280 279 277 277 276 279 279 277 280 278 281 282 286 287 288 289 289 290 291 291 292 293
280 280 280 280 282 283 283 282 283 281 280 280 280 281 282 281 280 279 279 279 279 279 279 274 278 277 279 280 285 286 287 288 289 290 291 292 292 293
280 280 281 281 285 287 284 282 279 278 282 285 285 284 284 284 283 280 277 275 274 275 278 276 276 276 278 278 280 285 287 288 288 289 290 291 291 291
280 281 285 284 287 288 282 279 276 276 280 279 277 278 280 280 283 280 278 274 273 273 277 275 276 277 275 279 279 280 281 285 287 288 288 290 290 288
281 281 281 286 286 285 284 277 278 281 279 276 276 277 278 278 278 279 279 277 274 274 278 279 277 276 276 275 278 279 279 281 281 282 285 287 289 289
282 281 283 285 284 283 281 283 283 281 276 276 276 276 276 276 277 278 278 278 279 278 279 279 277 277 276 275 274 277 277 278 280 280 282 285 288 290
282 284 283 282 281 279 281 281 281 276 276 276 275 275 276 277 277 277 278 279 279 280 281 281 279 278 277 275 275 274 274 277 280 281 283 283 284 285
283 278 280 280 280 279 278 278 277 277 277 276 275 276 277 277 276 277 276 276 276 277 280 281 280 279 276 275 274 273 275 275 280 282 284 285 286 287
281 277 276 275 274 275 275 276 276 276 276 276 275 275 276 276 276 277 276 276 275 276 277 279 280 279 277 274 273 276 277 278 282 284 284 284 285 287
277 274 273 274 274 274 274 274 275 276 275 275 274 274 274 274 274 276 276 276 275 276 277 277 277 276 275 277 279 275 281 281 283 285 285 284 284 286
275 274 273 273 273 274 274 274 273 274 275 274 273 274 274 273 274 274 275 276 275 277 277 277 276 275 272 272 277 283 281 283 283 283 285 284 284 285
275 274 273 273 273 273 274 274 273 274 273 273 274 273 273 273 273 273 275 275 276 276 276 277 276 277 274 274 274 278 286 284 283 284 283 286 288 290
274 273 274 274 274 274 274 273 273 273 274 273 273 273 274 274 274 274 275 278 278 275 275 276 278 284 280 280 278 280 283 287 287 285 284 282 284 285
274 273 274 274 273 273 273 273 273 273 272 272 273 274 274 275 275 275 276 275 275 275 276 277 279 279 279 278 277 278 281 285 288 289 289 287 285 282
273 274 273 273 273 273 273 272 272 272 272 273 273 274 274 275 275 278 277 276 276 275 274 276 277 277 278 278 278 278 280 282 283 283 285 289 289 289

GFSNE_sfc_thetae_003.txt.gz
Theta_e
281 281 280 282 282 282 282 282 279 276 277 280 281 284 284 285 288 288 287 291 293 294 295 295 295 296 296 297 297 298 299 300 300 301 302 302 302 303
282 280 280 281 281 282 282 282 282 280 277 282 283 284 284 286 288 288 287 291 292 293 293 293 293 293 294 295 296 297 298 298 299 300 301 301 301 301
280 280 281 281 281 282 282 282 281 281 278 281 283 284 284 284 285 286 287 288 287 291 291 291 291 291 293 294 294 295 295 296 297 298 298 299 300 300
280 280 281 283 280 280 281 281 281 282 281 279 282 282 282 283 284 284 285 285 283 287 289 289 291 291 292 292 293 293 294 294 295 296 296 297 298 299
280 280 280 280 279 280 280 281 282 284 282 280 279 282 283 283 283 282 281 281 282 286 288 288 289 290 291 291 291 292 292 292 292 293 293 294 295 296
281 281 280 280 280 280 281 282 283 281 281 280 281 282 281 283 282 279 278 280 279 282 285 287 287 288 288 289 289 289 289 289 290 291 292 292 293 295
279 280 281 283 287 286 284 283 282 281 281 281 279 280 279 278 277 278 277 278 279 281 279 280 280 281 282 285 286 287 287 288 290 291 292 293 293 294
278 279 280 283 283 287 287 287 286 283 281 281 279 277 276 277 278 278 278 276 274 280 278 278 280 279 280 281 286 287 288 289 289 290 290 291 292 293
280 280 280 282 283 281 284 287 287 288 286 282 277 277 276 278 280 278 277 277 276 279 279 276 279 277 280 281 285 286 287 288 289 289 290 291 292 292
279 279 279 279 281 283 284 283 281 280 280 280 279 280 281 281 280 279 279 278 279 279 279 274 277 276 278 279 284 286 287 287 288 289 290 290 291 292
279 279 280 281 285 288 283 279 278 278 281 284 285 284 284 284 283 280 276 275 273 275 278 276 276 276 277 278 280 285 286 287 287 288 288 289 290 290
280 280 285 284 287 287 281 278 275 276 279 279 277 278 280 280 283 280 278 274 273 273 277 275 276 277 275 279 279 280 280 284 286 286 287 288 289 287
280 280 280 285 285 285 284 277 278 282 279 276 276 277 278 278 278 279 279 277 274 274 278 278 276 276 275 275 278 279 279 279 279 280 284 286 287 288
280 280 282 284 284 283 281 282 283 281 276 276 276 276 276 276 277 278 278 278 279 278 279 279 276 276 275 275 274 278 278 279 279 277 279 283 287 289
281 283 283 282 281 279 281 282 281 275 275 275 275 274 275 276 277 277 278 279 279 279 280 279 278 278 277 275 275 275 276 277 278 278 281 282 283 283
282 276 280 279 280 279 277 277 276 276 276 275 274 275 276 275 275 277 276 276 276 276 280 281 281 279 276 277 276 275 276 275 279 280 282 285 286 286
281 276 275 274 274 274 275 275 275 276 275 274 274 274 274 274 275 276 276 276 274 275 276 279 280 279 279 278 275 277 278 279 282 284 285 284 285 286
277 274 273 273 273 273 273 274 274 275 274 274 273 273 273 273 273 275 275 275 274 275 276 278 277 276 277 279 281 277 280 283 284 285 285 284 284 286
274 273 272 272 273 273 273 273 272 273 274 273 272 273 274 272 273 273 274 274 274 276 277 277 276 275 274 274 279 285 280 284 284 285 285 284 284 284
274 273 272 273 273 273 273 272 272 273 273 273 273 273 272 273 272 273 273 273 276 276 276 277 277 277 276 275 276 279 285 284 284 284 284 285 286 288
273 273 273 273 273 273 273 272 272 272 274 273 272 272 273 273 272 273 274 278 279 275 274 276 278 285 281 281 278 280 284 287 286 284 284 284 284 284
273 273 273 273 272 272 272 272 272 272 271 271 272 272 273 273 273 274 275 275 275 275 275 277 279 279 277 276 277 279 281 284 287 288 288 287 283 280
273 273 272 272 272 272 272 272 272 271 272 272 272 273 273 273 275 275 276 277 276 275 274 275 277 277 278 277 278 277 278 280 281 283 284 289 288 288

GFSNE_sfc_thetae_006.txt.gz
Theta_e
280 280 280 281 281 281 281 280 278 275 276 278 279 284 284 285 287 287 287 291 293 294 295 295 295 295 295 296 296 296 297 298 299 300 301 302 303 304
282 280 279 280 281 281 281 281 280 278 276 280 281 283 284 286 287 287 286 290 291 293 293 293 293 292 293 293 294 295 295 297 298 299 300 301 302 303
280 280 280 280 280 280 280 280 280 280 277 280 282 284 283 282 283 284 285 285 287 291 291 291 291 291 291 292 293 294 295 295 296 297 298 299 300 301
280 280 280 282 280 280 280 279 280 280 279 277 281 281 281 283 283 283 284 286 285 287 289 289 290 290 290 291 292 292 293 293 294 295 296 297 297 298
279 279 279 279 278 279 279 279 280 282 282 280 279 281 282 283 282 283 282 282 282 286 287 288 288 289 290 290 290 291 291 291 292 292 293 294 294 296
279 279 279 279 279 279 280 280 282 280 280 279 279 281 281 282 281 278 277 279 279 282 284 286 287 287 288 288 288 288 288 288 289 290 291 291 292 293
278 279 280 282 286 285 283 281 281 280 280 281 281 280 278 277 276 278 277 279 280 280 279 280 280 280 281 284 285 286 286 287 288 290 291 291 292 292
277 278 279 283 282 287 287 287 286 284 280 278 277 276 276 276 277 278 278 276 274 281 279 278 280 279 280 280 284 286 287 288 288 289 290 290 291 291
279 279 280 282 283 280 284 287 286 286 285 280 276 276 276 278 280 278 277 277 276 279 279 276 279 277 279 280 284 285 286 287 288 288 289 290 290 291
279 278 278 279 280 283 283 283 279 279 279 280 279 280 281 281 280 279 278 278 279 278 279 274 277 276 278 279 284 285 286 287 287 288 289 290 290 291
279 279 279 280 285 287 283 279 278 278 281 284 285 284 284 284 283 280 276 275 273 275 278 275 276 275 277 278 280 285 286 286 287 287 288 288 288 289
280 280 284 284 286 287 281 279 275 276 279 279 277 278 279 279 283 279 277 274 273 272 277 275 275 276 274 278 278 279 279 284 285 286 287 288 288 286
280 280 281 285 286 285 284 277 278 282 279 275 276 276 277 277 277 277 278 276 274 274 278 278 276 275 275 274 278 279 280 280 280 281 285 286 287 287
281 280 280 284 284 283 281 282 283 281 276 275 275 275 274 274 275 276 277 277 278 277 279 278 276 275 275 274 274 279 280 280 280 279 280 283 286 287
281 283 283 282 281 279 280 281 280 275 275 275 274 273 274 275 275 276 277 277 278 278 279 279 278 278 277 276 275 276 278 279 280 279 280 280 281 282
282 277 280 279 279 278 277 276 275 276 276 274 274 274 275 274 274 275 274 275 275 276 279 279 280 279 277 277 277 276 279 277 280 281 283 284 285 287
281 276 274 274 273 274 274 275 275 275 274 274 273 273 273 274 273 275 275 275 273 274 275 278 280 280 280 278 276 279 279 280 284 285 285 285 286 287
277 273 272 273 272 273 273 273 274 274 273 273 272 272 272 272 273 274 274 273 273 274 275 277 277 277 279 280 283 278 282 282 285 285 285 284 284 286
274 272 272 272 272 272 272 272 272 273 273 272 272 272 273 272 272 272 273 273 273 275 277 277 277 277 275 274 280 285 281 283 284 284 284 284 283 284
273 272 272 272 272 272 272 272 272 272 272 272 273 273 272 272 271 271 272 272 274 277 275 277 277 277 277 276 276 280 285 283 283 283 283 285 285 289
272 272 272 272 272 272 272 272 271 272 273 273 271 272 272 272 271 272 272 277 278 275 274 275 277 284 280 278 277 279 282 286 285 284 284 283 282 283
273 272 272 272 272 272 271 271 271 272 272 271 271 272 272 272 272 272 273 274 275 276 275 276 278 278 269 273 276 277 280 283 286 287 288 287 283 279
272 272 271 271 271 271 271 271 271 271 271 271 271 272 273 272 274 274 275 276 277 276 275 275 276 274 270 271 277 276 279 281 282 282 284 288 288 288

GFSNE_sfc_thetae_009.txt.gz
Theta_e
287 287 286 287 287 287 286 285 282 278 280 283 284 287 288 288 289 289 289 291 292 293 294 294 294 295 296 296 296 296 296 297 297 299 299 300 301 303
287 286 286 286 286 286 286 286 285 282 279 283 285 286 287 287 289 288 288 290 291 292 293 292 293 293 293 294 294 294 295 295 296 298 299 300 301 302
286 285 285 285 285 285 286 285 284 283 281 283 286 287 286 286 286 288 288 288 289 291 291 291 291 291 291 292 292 293 293 294 295 296 298 299 300 300
284 284 284 284 284 284 284 284 284 284 283 281 283 285 285 286 286 286 287 287 287 288 289 289 290 290 290 291 291 292 292 293 293 294 295 296 297 298
284 283 283 283 282 283 283 283 284 284 284 283 282 285 285 286 286 285 284 284 284 286 288 288 289 289 290 290 290 291 290 291 291 291 292 293 294 295
284 283 283 282 282 283 283 284 284 283 283 283 283 283 283 284 284 282 281 283 283 284 286 287 288 288 288 289 288 288 288 288 289 290 290 290 291 292
284 283 284 284 286 286 285 284 284 284 284 283 282 281 281 280 279 281 280 282 283 283 283 284 284 284 285 286 286 286 286 287 288 289 290 291 291 291
283 283 284 284 284 287 287 287 287 285 283 282 281 279 279 279 281 281 280 278 277 283 281 281 284 283 284 284 285 286 287 288 288 289 289 290 290 291
283 283 283 284 285 283 285 287 288 287 286 283 279 279 279 281 282 280 280 279 279 282 281 278 282 281 283 283 285 286 286 287 288 288 289 289 290 290
284 283 283 283 284 284 285 285 284 283 282 282 281 282 283 283 282 281 281 281 281 282 281 276 281 280 282 283 285 286 286 287 287 288 289 289 289 290
284 284 283 283 285 287 285 282 281 281 283 284 285 285 284 284 283 281 279 277 276 277 281 278 279 279 280 281 283 285 286 286 287 288 288 289 289 289
283 284 284 284 286 287 283 281 278 279 281 282 280 280 281 281 283 281 279 275 275 274 279 277 278 279 276 281 282 283 283 285 286 287 288 288 289 287
282 282 283 285 286 285 284 280 279 283 281 278 278 278 279 280 280 280 279 278 275 275 280 279 278 278 277 278 281 282 283 284 284 285 286 287 288 288
282 282 283 285 284 283 281 282 283 282 278 277 277 277 277 277 278 279 279 279 279 278 280 280 278 277 277 277 277 282 283 284 285 285 285 286 288 289
283 283 283 282 281 280 280 281 281 277 276 276 276 276 277 278 278 278 279 279 279 280 281 280 280 279 279 278 278 280 281 283 284 284 285 285 285 285
283 281 281 280 279 279 278 278 277 277 277 276 275 276 277 277 277 278 277 277 276 278 281 282 282 282 280 281 280 280 282 280 285 285 286 286 287 287
281 278 276 275 275 275 276 276 276 276 276 275 275 275 275 276 276 277 277 277 275 276 277 280 283 283 283 281 280 282 283 283 285 285 285 285 287 288
278 275 274 274 274 274 274 274 275 276 275 275 275 274 274 274 275 276 276 276 275 276 276 280 281 280 282 284 286 283 284 284 284 285 285 284 285 287
275 274 273 273 273 274 274 274 274 275 275 274 274 274 274 275 274 274 275 275 275 276 279 280 279 279 276 277 284 286 282 283 284 284 285 284 284 285
274 273 273 273 273 273 274 274 274 274 274 274 274 275 274 274 273 274 274 274 275 278 278 279 280 280 278 279 279 282 285 284 283 283 284 285 286 289
273 273 273 273 273 273 274 274 273 273 274 274 273 274 274 274 273 274 275 277 278 277 277 278 280 284 282 282 280 282 284 287 286 284 284 283 283 284
273 273 273 273 273 273 273 273 273 273 273 273 274 274 274 274 274 274 275 276 277 278 278 280 282 282 281 280 278 280 282 285 287 287 287 287 283 280
273 273 273 272 272 273 273 273 272 273 273 273 274 274 275 274 276 276 277 278 278 279 279 279 281 281 280 279 279 280 281 283 284 283 285 288 288 288

GFSNE_sfc_thetae_012.txt.gz
Theta_e
291 291 290 290 290 290 289 288 285 282 283 287 287 290 290 290 291 290 290 292 293 294 294 294 294 294 295 296 296 297 297 297 298 298 299 299 300 301
291 290 290 290 289 289 289 288 287 285 282 286 287 288 289 289 290 290 290 291 292 293 293 293 293 293 293 294 294 294 295 295 296 297 298 299 299 300
290 289 288 289 288 288 288 287 286 286 283 285 287 288 288 288 289 290 290 289 290 291 292 291 291 291 292 292 293 293 294 294 295 296 297 297 298 299
289 288 287 287 286 286 286 286 286 286 284 283 285 286 286 288 288 287 288 288 288 288 290 290 291 291 291 291 292 292 292 293 293 294 295 295 296 297
288 287 286 286 285 285 285 286 286 286 286 285 284 287 288 288 287 287 286 286 286 288 289 290 290 290 291 291 291 291 291 291 291 292 292 293 294 294
288 287 287 285 285 285 286 286 286 285 285 285 285 286 286 287 286 284 282 285 285 286 288 288 289 289 290 290 290 289 289 289 290 291 291 291 291 292
288 287 287 286 287 287 286 285 285 284 285 285 285 284 284 283 281 283 282 284 285 285 286 286 286 287 287 288 288 288 288 288 289 289 290 291 291 291
286 286 287 287 286 287 287 287 286 285 284 284 283 281 281 282 282 282 282 281 279 285 284 283 286 285 286 287 288 288 288 288 289 289 289 290 290 291
286 286 285 286 287 285 286 287 288 289 288 285 282 281 281 282 283 283 282 281 280 283 283 281 284 283 286 286 287 287 288 288 289 289 289 289 290 290
286 286 285 285 285 285 285 286 286 285 285 284 283 283 284 285 284 283 282 282 283 283 284 279 283 282 285 286 287 288 288 288 289 289 289 290 290 290
286 286 285 285 286 287 285 284 283 283 285 285 286 287 286 286 285 282 280 279 278 279 282 280 281 281 282 284 286 287 288 288 288 289 290 290 290 290
285 285 286 285 286 287 284 282 281 281 282 283 283 283 283 283 284 283 282 278 278 276 281 279 279 280 278 283 285 285 286 287 289 289 290 290 290 288
283 283 284 286 286 285 285 282 280 283 283 281 280 281 282 282 283 283 282 280 278 277 281 281 279 279 279 279 282 285 285 287 287 288 289 290 290 290
283 283 284 285 284 284 282 282 283 283 280 279 279 279 280 281 282 282 282 281 281 280 281 281 278 279 278 278 278 283 285 286 287 287 287 289 290 291
283 284 285 284 282 281 281 282 281 280 279 277 277 279 280 281 281 281 282 282 282 282 283 282 281 281 280 278 279 281 283 285 287 286 287 287 286 287
284 284 282 281 281 280 280 280 280 280 279 278 277 278 280 280 280 281 279 280 279 280 283 284 283 282 280 282 281 280 283 282 287 287 287 286 288 288
282 281 279 278 278 278 279 279 279 279 278 278 277 277 277 278 279 280 280 279 277 278 279 282 284 284 284 283 280 283 284 285 286 286 285 285 288 288
279 277 277 277 277 277 276 277 278 278 278 277 277 277 277 277 277 279 279 278 277 277 278 281 282 282 283 285 287 285 285 284 285 285 286 284 285 287
277 276 276 276 276 276 276 276 277 278 278 277 277 277 277 278 277 277 278 278 278 279 279 282 281 281 278 277 283 288 283 284 284 285 285 285 283 285
276 275 276 276 276 276 276 276 277 277 277 277 277 277 276 276 276 276 277 277 278 279 279 281 282 282 279 278 279 282 285 284 284 284 284 285 287 289
275 275 276 276 276 276 276 276 276 276 277 276 276 276 277 277 276 277 277 279 279 279 278 279 282 286 284 283 281 282 285 287 287 284 284 283 283 284
275 275 276 276 276 276 276 276 276 276 276 276 276 277 277 277 277 277 278 278 279 280 280 282 284 284 282 280 280 281 283 285 287 287 288 287 283 280
275 275 275 275 275 275 275 275 275 275 275 276 276 277 277 277 278 279 280 280 281 281 281 281 282 284 282 283 282 282 282 283 283 283 286 289 289 289

GFSNE_sfc_thetae_015.txt.gz
Theta_e
292 293 292 292 292 291 290 289 286 282 283 287 287 291 291 290 291 290 289 293 294 295 295 295 295 295 296 296 297 297 297 297 298 299 299 300 300 302
292 291 291 291 290 290 289 289 288 285 281 286 287 288 289 289 290 290 290 292 293 294 294 293 294 294 294 294 295 295 296 296 297 298 299 299 300 300
291 291 289 290 289 288 288 287 286 286 282 285 287 288 287 287 288 289 290 289 289 292 292 292 292 292 293 293 294 294 295 295 296 297 298 298 299 299
290 290 289 288 287 287 287 286 285 286 284 282 285 286 286 287 288 287 288 288 287 289 291 292 292 292 292 293 293 293 294 294 294 295 296 297 297 297
289 288 288 287 286 286 286 285 286 286 286 284 283 286 286 287 287 287 286 286 286 289 290 291 291 291 292 292 292 293 293 293 292 293 293 294 294 295
290 289 288 287 285 285 285 285 286 285 285 283 283 283 285 287 285 283 282 284 283 286 288 289 290 290 291 291 291 291 291 291 291 292 292 292 292 293
288 288 288 288 288 288 286 285 285 284 283 282 282 283 282 282 281 282 281 282 282 284 283 284 285 284 285 288 288 289 290 290 291 291 291 292 292 292
286 286 287 288 287 288 289 288 287 284 283 283 283 281 281 281 281 281 280 280 278 284 282 281 283 283 284 285 289 289 290 290 290 291 291 292 291 291
286 286 286 286 287 286 287 287 287 288 288 284 282 281 280 281 281 280 281 280 278 281 281 279 283 281 284 285 288 289 289 290 290 291 291 291 292 292
286 286 285 285 286 286 285 284 285 285 285 284 283 282 283 284 284 284 281 280 281 282 283 277 281 279 282 283 287 288 289 290 290 291 291 292 292 292
286 286 285 285 287 288 285 283 283 282 285 286 286 287 288 287 286 282 279 278 277 278 281 279 279 279 280 280 283 288 289 289 289 290 291 292 292 293
284 285 287 286 287 287 284 282 280 280 281 282 283 283 284 283 285 283 282 278 277 276 280 278 278 278 276 280 281 282 283 287 289 290 291 291 292 289
283 283 284 286 286 287 286 282 280 282 282 281 280 280 281 281 282 282 282 280 278 276 280 280 278 277 277 276 279 281 282 283 284 285 289 290 291 291
282 283 284 286 286 285 283 283 284 284 280 279 278 278 278 279 280 281 281 281 281 279 281 281 278 277 277 276 275 279 281 282 283 284 285 289 291 291
284 284 285 285 284 282 282 283 283 280 279 278 277 278 279 279 279 279 281 282 281 281 282 281 280 279 279 277 276 278 280 282 283 283 286 286 286 287
284 283 283 283 282 281 280 280 280 280 279 278 277 278 279 278 277 279 278 278 278 278 281 281 282 281 279 279 279 279 281 279 282 284 286 286 287 287
283 280 279 278 278 278 278 278 279 279 278 278 278 277 277 277 277 278 278 278 277 276 277 280 281 281 282 281 279 280 281 282 284 284 284 283 285 287
279 277 277 277 276 276 276 276 277 278 278 277 277 276 276 276 276 277 278 277 276 277 277 279 280 280 280 281 286 281 282 281 283 283 284 283 283 285
276 276 276 276 276 276 276 276 276 277 277 277 276 276 276 276 276 275 276 276 276 277 277 279 280 278 276 275 281 287 281 281 281 282 284 283 283 284
276 275 275 276 276 276 276 276 276 276 276 276 276 276 276 275 275 275 276 275 276 277 278 279 280 279 278 277 278 281 285 282 282 282 282 284 285 289
275 275 276 276 276 276 276 276 275 275 276 276 275 276 276 276 275 276 276 279 280 278 277 278 280 286 283 283 280 280 283 286 286 283 284 282 282 283
275 275 276 276 276 276 275 275 275 275 275 275 275 276 276 276 276 276 277 277 277 278 279 281 283 283 282 280 279 280 281 283 286 287 288 287 283 280
275 275 275 275 275 275 275 275 274 274 275 275 275 275 276 276 277 278 278 279 280 281 281 280 281 282 281 281 281 281 281 281 283 283 284 289 289 289

GFSNE_sfc_thetae_018.txt.gz
Theta_e
287 287 287 287 287 286 286 284 281 279 280 281 281 286 285 286 288 288 287 292 294 295 296 296 295 295 296 297 297 297 298 298 298 299 300 300 301 302
288 286 286 286 285 285 284 284 283 280 278 282 283 283 284 287 289 288 287 292 293 294 294 294 294 294 294 295 296 296 297 297 298 299 300 300 300 301
286 286 286 285 284 284 283 283 282 281 279 281 283 284 283 283 285 285 287 287 287 292 293 293 293 293 294 294 294 295 295 296 297 298 299 299 300 300
285 285 285 287 283 282 282 281 281 281 280 279 282 283 282 283 284 284 287 288 286 289 292 292 292 292 293 293 293 294 294 295 295 296 296 297 297 298
285 284 284 283 282 281 281 280 281 284 282 281 280 283 283 284 284 286 284 284 285 288 290 290 291 292 292 292 293 293 293 293 293 293 294 294 295 296
286 285 284 283 282 281 282 281 283 281 281 280 280 281 282 284 283 280 280 281 281 284 286 288 290 290 291 291 291 290 290 291 292 292 293 293 293 294
284 284 284 286 289 288 285 282 282 281 280 279 281 281 282 280 279 280 279 280 280 282 282 282 282 283 283 287 287 289 289 291 291 292 293 293 293 294
282 282 283 287 286 289 289 289 287 283 280 280 282 279 279 279 277 278 278 277 276 283 278 279 281 280 282 283 287 289 290 290 291 292 292 293 293 294
281 282 283 285 285 283 286 287 286 288 288 283 280 279 278 279 278 278 279 280 279 280 280 277 281 280 282 283 287 288 289 289 290 291 292 292 293 293
281 281 281 281 282 284 283 280 281 282 283 283 281 281 280 283 283 283 281 280 280 280 280 276 280 279 281 281 287 287 288 289 290 291 292 292 292 293
281 281 282 281 286 288 284 278 280 280 284 286 286 287 287 287 286 282 278 277 276 278 280 278 278 278 279 279 281 286 287 288 288 289 290 291 291 292
280 281 286 284 287 287 283 281 278 278 279 280 281 281 282 280 285 281 279 276 275 275 278 277 277 278 275 278 279 280 280 285 286 288 289 290 290 288
279 279 280 286 287 287 287 280 279 282 282 279 278 278 279 279 279 279 279 278 277 276 280 280 277 277 277 275 278 279 280 280 281 282 286 288 289 290
279 280 280 286 286 285 284 284 284 284 278 277 277 277 277 277 278 278 279 278 279 279 280 281 278 277 276 275 275 279 280 280 281 281 282 286 288 290
281 283 285 285 284 282 283 284 283 277 277 276 277 276 276 277 278 277 278 278 279 280 281 280 279 279 278 276 276 277 279 280 282 281 282 283 283 285
283 278 282 282 282 281 279 278 277 277 278 277 276 277 278 277 276 277 276 276 276 276 279 280 279 279 278 278 278 278 279 278 282 282 283 284 285 286
282 278 276 275 275 276 276 276 276 277 276 276 276 276 276 276 276 277 276 276 275 275 276 278 279 279 279 278 277 279 279 280 282 282 282 282 283 284
278 274 273 273 274 275 275 275 276 276 275 276 276 275 275 275 275 276 277 275 274 275 275 276 277 277 278 279 284 280 281 280 281 282 282 280 281 284
274 273 272 273 273 274 274 274 274 275 275 275 275 274 275 275 276 274 275 275 274 275 275 276 277 277 275 274 280 286 281 281 281 280 281 282 281 283
274 273 272 273 273 273 273 274 274 275 274 274 274 275 275 274 274 274 275 274 275 276 277 278 277 278 277 278 278 281 285 282 282 281 281 283 285 288
274 273 273 273 273 273 274 274 274 274 275 275 274 274 274 275 274 275 275 278 279 277 276 277 280 286 283 282 279 279 282 286 286 283 283 282 281 283
274 272 273 273 273 273 273 274 273 273 273 273 274 274 275 275 275 275 276 276 276 278 278 280 283 282 281 280 278 279 281 283 286 287 287 286 283 280
272 272 272 272 273 273 273 273 273 273 273 273 273 274 275 275 276 276 276 277 278 279 281 280 281 282 281 281 281 280 280 280 282 282 284 288 289 289

GFSNE_sfc_thetae_021.txt.gz
Theta_e
286 286 286 286 286 285 284 283 280 277 278 279 280 283 284 284 287 288 286 291 294 294 295 296 296 295 296 296 297 297 298 299 299 299 300 301 301 302
287 285 285 285 284 284 283 283 281 279 276 279 280 281 283 286 287 287 285 291 292 294 294 294 294 294 295 295 296 296 297 297 298 299 300 300 301 301
285 285 285 285 284 283 282 281 280 279 277 279 281 282 281 282 283 284 286 285 287 292 292 292 293 293 293 294 294 295 295 296 297 298 299 299 300 300
285 285 284 287 282 282 281 280 279 279 278 278 280 281 281 281 283 283 285 287 286 289 291 291 291 292 292 293 293 294 294 294 295 296 296 297 297 298
284 284 283 283 281 281 280 279 280 283 280 279 280 282 281 283 282 283 284 283 284 288 289 289 290 291 292 292 292 292 292 292 293 293 293 294 295 296
285 284 283 282 281 280 280 280 281 280 279 279 279 279 281 282 282 280 280 281 280 283 285 287 289 290 290 290 290 290 290 290 291 292 293 293 294 295
284 283 283 285 289 287 284 281 280 280 279 277 278 279 280 279 278 280 278 279 280 281 281 281 282 282 282 286 286 287 288 290 291 292 292 293 293 294
281 281 282 286 285 289 288 288 287 281 277 280 279 279 278 278 277 278 278 277 276 282 278 280 281 280 281 282 286 288 289 290 290 291 291 292 293 293
280 281 282 284 285 281 285 288 287 288 287 283 279 278 278 279 278 277 279 280 279 281 280 278 280 279 281 283 287 287 288 289 290 290 291 292 293 293
280 280 279 279 281 283 282 281 282 281 281 282 280 280 280 282 283 282 280 279 279 280 280 276 280 278 280 281 286 287 287 288 289 290 290 290 291 292
280 280 281 280 285 287 283 278 279 279 284 286 286 287 287 286 285 281 277 275 275 276 279 277 277 277 279 279 280 285 287 287 287 288 289 289 290 290
279 280 285 284 287 287 283 280 277 277 278 279 280 280 281 280 284 280 277 275 274 274 277 276 277 277 275 278 278 280 280 284 286 287 288 288 289 286
279 279 280 286 286 287 286 280 279 282 281 277 277 278 278 278 279 279 279 277 275 274 278 279 277 276 276 275 278 279 279 280 280 281 285 286 287 287
279 279 279 285 285 285 283 284 284 283 277 277 276 276 277 276 277 277 278 278 278 277 278 278 276 276 275 274 274 278 279 280 280 280 280 284 287 288
279 282 285 284 283 280 282 283 282 276 276 275 275 275 276 276 277 277 277 277 277 278 279 278 277 277 277 275 275 276 277 279 280 280 279 282 282 283
282 279 281 281 280 280 278 278 277 276 276 276 275 276 277 276 275 276 275 276 275 275 279 279 277 277 276 277 277 276 278 276 279 280 281 282 283 284
282 277 275 274 274 275 275 276 276 276 275 275 275 275 275 275 275 276 275 275 274 274 275 277 278 278 278 277 276 277 277 278 279 280 281 281 282 283
276 273 272 273 273 273 274 274 274 275 274 274 274 274 274 273 274 275 276 275 273 274 275 276 276 276 276 278 282 277 278 279 280 280 282 280 280 283
274 272 271 272 272 273 272 272 272 273 274 274 273 273 273 273 275 273 274 274 274 274 275 276 277 277 274 273 279 286 281 281 281 281 281 281 281 283
274 272 271 272 272 272 272 272 272 273 273 273 273 274 274 273 273 273 274 274 274 275 277 278 278 278 277 277 278 281 285 282 281 281 281 283 284 287
273 271 272 271 271 271 271 271 272 272 274 274 272 273 273 273 273 274 274 277 278 276 275 276 279 285 283 282 279 279 282 286 285 283 282 281 281 282
273 271 272 272 271 270 271 272 272 272 272 272 272 273 273 273 273 274 274 275 275 276 277 279 282 282 281 279 277 278 280 282 285 286 287 286 282 279
271 272 271 271 270 270 271 272 272 272 272 272 273 273 273 273 274 275 275 276 277 278 280 279 280 281 280 279 279 278 278 279 280 281 282 287 288 288

GFSNE_sfc_thetae_024.txt.gz
Theta_e
285 285 286 286 285 285 284 283 280 277 276 279 279 281 282 283 285 286 285 290 293 294 294 295 295 296 296 296 297 298 298 298 299 300 301 301 301 303
286 285 284 284 284 284 283 282 281 279 276 278 279 280 281 285 286 286 284 290 290 292 293 293 293 294 294 295 295 296 296 297 298 299 300 301 301 302
285 285 285 285 284 283 282 281 280 279 276 278 279 281 280 280 282 283 284 284 285 290 292 292 292 293 293 293 294 294 295 296 297 298 298 300 300 301
284 285 285 286 283 282 281 280 279 279 278 277 279 279 279 281 281 281 284 286 285 289 290 291 291 291 292 292 293 294 294 294 294 295 296 296 297 298
285 285 285 283 282 281 280 279 279 282 279 278 279 279 279 280 281 281 282 283 284 287 289 289 290 291 291 292 292 292 292 292 292 293 293 294 295 296
286 284 283 283 281 280 280 279 280 279 279 278 278 277 278 281 280 279 278 280 280 282 285 287 289 289 290 290 290 290 290 290 291 292 292 293 293 295
284 284 283 284 288 287 284 281 280 279 278 276 278 276 279 279 278 279 278 279 280 281 281 280 281 281 283 286 286 287 288 289 291 292 292 293 293 294
282 281 281 285 285 289 289 288 286 281 275 275 273 278 278 278 278 278 277 276 276 281 278 280 281 280 281 281 286 288 289 290 290 290 291 292 292 293
280 280 281 283 283 281 284 287 286 288 287 284 279 278 278 278 278 276 278 279 278 280 279 277 280 278 281 282 287 288 288 289 290 290 290 291 292 293
279 278 278 279 281 283 282 280 281 281 281 282 280 280 280 281 282 282 279 278 279 279 279 274 278 277 279 280 286 287 288 288 289 289 290 290 290 290
279 279 280 280 285 287 282 279 279 279 284 286 286 287 287 287 285 281 276 275 274 276 278 276 276 277 278 278 280 285 287 287 288 288 289 289 289 290
279 280 284 283 286 287 283 280 277 277 278 278 278 279 280 279 284 279 276 274 274 273 276 274 276 276 274 277 278 278 279 284 286 287 287 288 288 285
278 279 279 285 286 286 286 279 279 281 278 276 277 277 278 278 278 278 278 275 275 274 278 278 276 275 275 274 277 279 279 279 279 281 285 286 287 287
279 279 279 285 285 284 282 283 284 282 277 276 276 276 276 275 276 277 278 277 277 277 278 278 275 274 274 273 273 277 278 279 279 279 279 283 286 287
279 282 285 284 282 279 281 282 281 275 275 274 275 275 275 275 276 276 276 277 277 278 279 279 277 276 276 274 273 275 276 278 279 278 279 279 279 280
282 278 280 279 279 279 277 277 276 276 276 275 274 275 276 275 275 276 275 275 275 275 278 279 279 277 275 275 275 275 276 275 278 278 279 279 280 281
280 276 274 273 273 274 274 275 275 275 274 274 274 275 275 275 274 275 274 274 273 274 274 276 278 278 278 277 275 276 276 276 278 278 278 278 280 282
275 273 271 272 272 272 273 273 273 274 273 273 273 273 273 272 273 274 275 274 272 273 274 275 276 276 277 279 281 276 277 277 279 280 281 279 280 283
273 271 270 271 271 272 271 271 271 272 272 273 272 272 272 272 274 272 273 273 273 273 274 275 276 276 274 272 279 286 280 281 281 281 281 281 280 281
273 272 270 271 271 271 271 270 271 271 272 272 272 273 272 272 272 272 273 273 273 274 276 277 276 277 276 276 278 281 285 282 281 280 280 282 284 287
272 271 271 270 270 270 270 270 270 270 273 273 270 272 272 272 272 272 273 277 278 275 274 276 278 284 282 282 279 279 281 285 285 282 281 280 279 280
272 271 271 271 270 270 269 269 270 271 271 271 271 273 273 273 273 273 273 274 275 275 276 278 281 281 280 279 277 278 279 281 284 285 286 285 281 278
270 271 271 270 270 269 270 270 271 270 271 271 272 273 273 274 275 275 275 276 276 278 279 278 279 280 279 279 279 278 278 278 279 281 282 286 287 287

GFSNE_sfc_thetae_027.txt.gz
Theta_e
288 288 285 285 285 285 284 283 281 277 277 279 279 280 281 282 284 285 283 289 292 293 294 294 295 295 296 296 297 298 299 298 299 299 301 301 302 303
288 287 285 284 284 283 283 282 281 280 276 278 279 279 281 284 285 285 284 289 290 292 292 292 293 294 294 295 296 296 296 297 298 299 300 301 302 302
287 285 286 284 283 283 282 282 280 279 277 278 278 279 279 280 282 282 283 282 283 290 291 292 292 293 293 294 294 295 295 296 297 298 299 299 300 300
286 286 286 286 283 283 282 280 279 279 278 276 277 278 279 280 280 280 283 285 284 287 290 291 292 292 292 293 293 293 294 295 295 295 296 296 297 298
285 285 284 283 282 281 280 279 279 281 278 277 278 279 279 279 279 280 280 281 283 287 288 289 290 290 291 292 292 292 292 292 293 293 293 294 295 296
285 285 284 284 282 281 280 279 279 278 278 278 278 277 277 279 279 278 278 280 280 282 285 286 289 289 290 290 290 290 290 290 291 292 292 292 293 294
284 284 283 284 287 286 283 280 280 279 278 275 277 275 277 278 278 279 277 278 279 280 280 280 280 281 282 286 286 287 288 289 290 291 292 293 293 293
282 282 281 284 284 287 288 289 286 279 274 273 271 276 278 278 278 278 277 276 276 280 278 279 281 280 280 281 286 288 289 290 291 291 291 292 292 292
282 281 281 282 282 280 284 287 286 288 287 282 278 278 277 279 279 277 278 277 278 279 279 276 279 278 280 281 286 287 289 289 290 290 290 291 291 292
280 279 278 279 280 282 281 280 280 281 281 281 279 280 280 281 281 281 280 278 279 279 278 274 278 277 279 280 285 287 288 288 289 290 290 290 291 291
280 279 280 279 284 287 282 278 279 280 284 286 286 287 287 287 285 280 276 275 274 276 278 276 276 276 278 278 280 285 287 288 288 289 289 289 289 290
279 279 283 282 286 287 281 279 276 277 278 278 278 278 280 279 283 279 274 272 274 273 276 274 276 276 273 277 277 278 279 284 286 287 287 288 288 285
279 279 280 284 286 287 286 278 278 280 279 275 276 276 277 277 277 278 278 273 274 274 278 278 275 275 275 274 276 278 278 279 279 280 284 285 286 286
279 279 279 285 285 284 282 282 283 282 276 275 275 275 275 275 275 276 277 276 277 276 277 277 275 273 273 273 272 276 277 278 278 278 279 282 285 286
280 282 285 284 282 279 281 282 281 275 275 274 274 274 274 274 275 275 275 276 276 276 278 278 277 276 276 274 273 274 276 277 278 277 278 278 278 279
282 278 280 279 279 278 277 276 275 275 275 275 274 275 275 274 274 275 273 274 274 274 277 278 277 277 275 276 275 274 275 274 277 278 278 278 279 280
279 275 273 273 272 273 274 274 274 274 273 273 273 273 274 274 273 274 273 273 273 273 273 276 277 278 277 276 274 276 276 276 277 277 277 277 279 280
275 272 271 271 271 272 272 272 272 273 272 272 272 272 272 272 272 274 274 272 272 272 273 274 275 275 276 278 281 276 277 277 278 279 280 278 279 282
272 270 269 270 271 271 271 270 270 271 270 270 271 270 271 272 274 271 272 272 272 273 273 274 275 276 273 272 279 285 280 281 281 281 281 281 280 282
272 271 269 270 270 270 270 269 270 270 270 270 270 272 272 271 271 271 272 272 272 274 275 277 276 277 276 275 277 280 284 281 281 280 279 281 282 286
271 270 270 270 270 270 270 269 269 269 271 272 270 271 272 272 272 272 273 277 277 275 275 276 278 284 282 281 277 278 281 285 284 281 281 280 279 279
271 270 271 270 270 269 269 269 269 269 270 270 271 272 273 274 274 274 274 274 274 275 276 278 281 281 280 278 276 277 278 280 283 285 286 284 280 277
270 270 270 270 270 269 269 269 269 269 270 270 272 273 274 274 276 276 276 276 276 276 280 280 281 281 280 279 279 278 277 278 280 279 281 286 287 287

GFSNE_sfc_thetae_030.txt.gz
Theta_e
290 289 288 288 286 287 286 284 281 277 277 280 280 281 281 282 284 285 283 289 292 293 293 294 294 294 295 296 297 298 298 299 299 300 301 301 302 303
289 288 287 286 287 286 286 284 282 280 278 279 279 279 280 283 284 285 283 289 290 291 292 292 293 293 294 295 296 296 297 297 298 299 300 300 302 302
288 288 287 286 286 284 284 282 281 280 278 278 278 279 279 280 281 281 283 281 282 289 291 291 292 293 294 294 294 295 295 296 297 298 299 300 300 300
288 287 287 287 285 285 284 281 280 279 278 276 277 278 278 280 280 279 282 284 283 287 290 291 291 292 292 292 293 294 294 295 295 296 296 297 298 298
288 287 286 285 284 283 283 281 280 281 278 277 277 278 278 279 278 279 279 280 282 286 288 289 289 290 291 292 292 292 292 293 293 293 294 295 295 296
286 286 285 285 284 283 282 281 280 279 278 277 277 276 277 279 278 278 278 279 279 282 284 286 288 289 290 290 290 290 290 291 291 292 293 293 293 294
285 285 284 285 286 286 283 281 280 279 278 275 276 275 276 277 278 279 277 278 278 280 280 279 280 280 282 285 286 287 288 289 291 292 292 293 293 294
283 282 282 284 285 287 287 288 285 278 275 273 271 276 277 277 276 277 277 276 276 280 277 279 280 280 281 281 285 287 289 290 291 291 292 292 292 293
282 282 282 283 283 280 283 287 286 288 287 281 278 277 277 277 277 276 277 278 277 280 279 277 279 278 280 281 286 287 289 289 290 290 291 291 291 292
282 280 280 280 281 282 281 280 281 281 281 281 279 279 279 280 280 281 279 278 278 279 278 274 278 277 279 279 285 286 288 289 289 290 290 291 291 291
281 280 280 280 283 286 282 278 279 279 283 286 286 286 286 286 285 280 275 274 273 275 278 276 276 276 278 278 280 285 287 287 288 289 289 289 289 290
279 280 283 282 285 286 282 279 276 276 277 278 277 278 279 278 283 278 272 271 273 272 276 274 275 276 273 277 278 277 279 283 285 286 287 288 288 285
279 279 279 284 285 286 286 277 278 280 278 275 275 275 276 276 277 277 277 271 273 273 277 278 272 275 275 274 276 278 278 278 278 280 283 285 286 285
279 279 279 284 285 284 281 282 283 281 275 275 274 274 274 274 275 275 276 276 276 275 277 277 274 272 273 272 272 276 277 278 278 278 278 281 284 286
280 282 284 283 281 278 280 281 280 274 274 273 273 273 273 273 274 274 275 275 275 276 277 276 276 275 275 273 273 274 275 277 278 277 278 277 278 278
281 277 279 278 278 277 276 275 274 274 274 274 273 274 274 271 273 274 273 273 273 274 276 276 275 275 274 274 275 274 276 274 277 278 278 278 279 279
278 274 272 272 271 272 273 273 273 273 272 272 272 272 273 273 273 273 273 272 272 272 273 275 275 276 276 276 274 275 275 276 277 277 277 277 279 280
274 271 270 270 270 271 271 271 272 272 271 271 271 270 270 271 271 273 274 272 271 272 272 274 274 274 275 278 281 276 277 277 278 279 280 278 279 282
271 269 269 269 270 270 270 269 269 270 268 269 268 269 270 270 273 272 272 272 272 273 273 274 274 275 273 271 278 284 279 280 280 280 280 280 279 281
271 270 268 269 270 269 269 269 269 269 269 269 268 269 271 271 270 272 274 273 272 273 275 276 275 275 275 275 277 280 284 280 280 279 279 280 282 285
270 269 269 269 269 270 270 269 267 268 270 271 270 270 271 272 272 274 275 279 279 276 275 275 277 284 281 280 277 278 281 285 284 281 281 280 278 279
271 269 270 269 269 269 269 269 268 269 269 268 269 271 272 273 273 274 276 276 276 276 276 277 279 282 281 280 278 279 280 282 284 285 285 284 280 276
269 269 269 268 267 267 269 268 269 269 269 269 269 270 272 272 274 275 276 277 277 277 277 280 281 282 281 281 281 280 279 280 281 280 282 286 287 287

GFSNE_sfc_thetae_033.txt.gz
Theta_e
296 294 293 290 291 289 289 290 289 286 285 285 287 288 289 289 289 291 290 290 293 293 293 294 294 294 295 296 297 298 299 299 300 301 301 302 302 303
292 290 289 289 289 289 289 287 288 286 285 287 287 287 287 287 289 290 289 290 291 292 292 292 293 293 294 295 296 297 297 298 299 300 300 302 302 303
290 289 288 288 288 287 287 286 286 286 285 286 286 286 286 287 288 289 289 289 288 290 291 291 292 293 294 294 295 295 296 297 297 298 299 300 301 301
290 289 288 289 287 287 286 285 285 284 284 284 284 285 285 286 287 286 287 288 287 288 290 291 292 292 292 293 293 294 294 295 295 296 297 297 298 299
289 289 288 287 286 285 285 285 284 284 283 283 283 284 285 286 286 286 286 286 286 287 288 289 290 290 291 292 293 293 293 293 294 294 294 295 296 297
288 287 287 287 286 285 285 284 284 283 283 283 283 284 284 286 285 284 283 285 284 285 287 287 289 289 290 291 291 290 290 291 292 292 293 293 294 295
286 286 285 285 287 286 285 284 284 283 283 284 283 283 283 283 283 284 282 283 284 285 284 285 285 285 286 288 287 288 288 289 291 292 293 293 294 294
283 284 284 286 286 288 289 289 287 284 284 283 283 282 283 283 283 282 281 280 278 286 283 283 285 284 285 286 287 288 289 290 291 291 292 293 293 293
284 283 283 285 285 283 284 286 286 287 288 286 283 282 282 283 283 281 282 281 280 283 283 280 284 282 285 285 287 288 289 289 290 291 291 292 292 292
283 283 283 283 283 284 284 284 285 284 284 284 285 284 284 285 284 283 283 282 282 283 283 278 283 282 284 284 286 287 288 289 289 290 291 291 291 291
282 283 283 283 283 285 285 283 283 283 284 285 285 286 286 286 285 283 281 279 277 279 282 279 280 281 282 282 284 286 287 288 288 289 289 289 289 290
282 282 283 284 284 286 285 283 280 281 281 282 282 281 282 281 283 282 280 277 276 276 281 278 280 279 277 282 283 284 283 285 286 286 287 288 288 286
281 281 282 284 285 286 285 281 280 283 280 279 279 279 280 280 280 281 280 279 276 276 280 280 279 278 277 277 280 282 282 283 283 283 285 285 286 286
281 282 282 284 284 283 282 282 283 282 278 277 277 278 278 278 279 279 279 279 280 278 280 279 276 276 276 275 275 280 282 283 283 282 283 284 285 286
282 283 283 282 281 279 279 280 280 277 277 276 276 277 278 278 278 278 279 279 279 279 280 279 277 277 276 275 275 277 278 281 282 281 283 282 283 283
282 280 280 278 277 277 277 277 277 277 277 277 276 277 277 277 277 278 277 278 277 278 281 280 279 278 276 277 277 276 279 277 281 282 283 282 283 284
279 277 275 275 274 274 275 275 276 276 276 276 275 275 275 276 276 277 277 277 275 276 277 280 281 280 279 278 275 277 277 279 281 282 281 280 282 284
276 274 273 273 273 273 274 274 275 275 275 274 274 274 273 274 274 276 278 277 276 276 277 278 279 278 279 281 282 278 281 281 283 284 283 280 281 285
274 273 273 273 273 273 273 273 273 274 273 273 272 272 273 273 274 275 276 276 277 278 279 279 278 277 275 274 281 285 281 282 283 282 283 282 281 283
273 273 273 273 273 273 273 273 273 273 273 272 272 272 272 274 274 274 275 276 277 278 280 281 280 279 277 276 278 282 285 282 282 282 282 284 285 286
272 273 273 273 273 273 273 273 272 271 273 274 273 272 273 274 274 275 276 278 279 279 278 279 281 284 282 282 279 281 284 286 286 283 283 282 281 282
272 273 273 273 273 272 272 272 272 272 272 272 272 272 273 274 274 274 275 276 277 278 279 281 282 282 282 281 279 281 282 284 286 287 287 285 282 279
272 272 273 272 272 271 271 271 271 272 272 272 273 273 273 273 275 275 276 277 278 278 279 280 283 284 282 282 281 281 281 282 283 283 284 287 287 287

GFSNE_sfc_thetae_036.txt.gz
Theta_e
307 303 298 295 295 294 293 295 294 289 289 291 291 293 293 292 292 292 293 293 293 294 295 295 294 295 296 296 297 298 299 299 300 301 302 302 303 304
303 297 294 292 292 292 290 289 290 289 285 287 288 288 290 290 292 291 292 292 292 293 293 293 293 294 294 295 296 297 298 298 299 300 301 301 302 303
296 293 290 291 289 289 289 288 287 288 286 285 286 287 287 287 290 291 292 291 291 292 292 292 292 293 294 295 295 296 296 297 298 299 300 300 301 301
295 293 292 290 288 288 288 287 286 286 285 283 285 285 285 287 288 288 289 289 290 291 291 291 292 293 293 293 294 294 295 295 296 297 298 298 298 299
291 291 290 288 287 287 286 285 285 286 284 284 284 286 286 287 286 288 289 289 289 290 290 290 291 292 292 293 293 293 294 294 294 294 295 296 296 297
290 290 290 288 287 286 286 285 285 286 285 284 285 285 286 287 287 285 285 288 287 287 289 290 290 290 291 291 292 291 291 292 292 293 293 294 294 295
288 287 287 288 289 287 287 285 285 284 285 285 284 285 284 285 285 286 284 285 286 287 287 288 288 288 289 290 290 290 290 291 291 292 293 294 294 294
285 285 286 287 288 289 290 289 288 287 285 284 284 284 284 285 286 285 284 282 280 287 286 285 288 287 288 289 290 290 290 291 291 292 292 293 293 293
285 284 285 286 286 285 286 287 288 289 290 287 285 285 284 285 285 283 283 282 281 285 285 283 286 285 288 288 290 290 290 290 290 291 291 292 292 293
285 285 285 284 285 284 285 285 285 286 287 287 286 286 286 286 286 285 284 284 285 285 286 281 285 284 287 288 289 289 289 290 290 290 291 291 291 292
285 285 285 284 284 285 285 285 285 286 287 286 286 286 287 287 287 285 282 282 280 282 285 282 283 283 285 286 287 288 288 289 289 289 290 290 290 290
284 284 284 284 284 285 286 285 283 284 284 284 284 284 284 284 284 284 283 280 279 278 285 281 282 282 279 285 286 286 286 288 288 288 288 289 289 287
283 283 284 284 285 286 285 284 283 284 283 282 282 282 282 283 284 284 284 282 279 278 283 283 281 281 280 280 283 285 285 286 286 287 287 288 288 287
282 284 284 284 284 283 283 282 283 283 282 280 280 280 281 283 284 284 283 283 283 281 283 283 279 279 278 277 278 282 285 286 286 285 286 287 287 288
284 284 283 282 281 281 280 281 281 280 279 279 279 281 282 283 282 282 283 283 282 282 282 282 280 279 277 276 277 279 280 283 284 284 284 285 285 285
283 284 281 279 278 279 278 279 279 279 279 280 280 280 281 281 281 282 281 282 281 282 286 284 283 281 278 278 278 278 280 278 283 284 284 284 285 284
282 280 278 278 278 278 278 279 279 279 279 280 279 279 278 279 280 281 281 280 278 280 282 284 286 284 283 281 278 279 279 280 283 283 282 282 284 285
279 277 277 277 277 277 277 278 279 279 279 279 278 278 277 277 278 279 280 280 279 280 280 281 282 281 282 283 284 281 282 282 284 285 284 282 283 286
276 276 276 276 277 277 278 278 277 278 278 277 277 277 276 276 277 277 279 279 279 280 280 282 282 281 278 277 283 287 282 283 284 283 284 284 283 285
276 275 276 277 277 277 278 278 278 278 278 277 277 277 276 276 276 277 278 278 279 280 280 281 282 282 280 279 279 283 285 283 283 282 283 285 286 288
275 275 276 277 277 278 278 278 277 276 277 276 277 276 276 276 276 277 277 279 279 279 278 279 283 286 284 284 280 281 285 286 286 284 284 283 282 283
275 276 276 277 277 277 277 277 276 277 277 277 277 277 277 277 276 276 277 277 277 278 278 281 283 283 283 281 281 282 283 285 287 287 287 286 283 280
276 276 276 277 277 277 276 276 276 276 276 277 277 277 278 276 277 277 277 277 277 278 279 279 282 283 284 284 283 282 282 282 283 283 284 288 288 287

GFSNE_sfc_thetae_039.txt.gz
Theta_e
312 310 308 306 302 297 297 297 297 288 290 291 289 292 293 292 293 292 292 294 295 296 296 296 296 296 296 297 298 298 299 299 300 301 302 302 303 304
311 309 304 297 295 293 292 292 292 292 288 289 288 288 291 291 292 291 290 293 294 295 295 295 295 295 295 295 296 297 298 298 299 300 301 302 302 303
304 301 295 294 292 292 290 290 289 289 287 285 287 287 287 288 289 290 291 290 290 293 294 294 294 294 294 295 295 296 297 298 298 299 300 301 301 301
298 296 293 293 290 290 290 287 287 287 287 285 286 285 285 286 286 287 289 290 289 291 293 294 293 294 294 294 294 295 295 296 296 297 298 298 299 300
295 293 290 290 289 288 288 287 286 287 286 286 285 286 286 287 287 288 288 288 290 291 293 292 292 293 293 294 294 294 295 295 295 295 295 296 297 298
292 291 291 290 288 287 287 286 285 285 285 285 285 285 286 288 287 285 285 287 286 288 289 290 292 292 292 293 293 293 293 293 293 294 294 294 294 295
289 289 289 290 290 289 287 286 286 285 285 285 285 285 285 285 284 286 284 285 285 286 285 286 286 287 288 290 291 291 292 292 292 293 293 294 294 295
286 286 288 289 290 291 290 290 288 286 286 286 285 283 284 285 285 284 283 282 279 286 283 283 286 285 286 287 291 291 292 292 292 292 293 293 293 294
285 285 285 287 286 286 288 288 289 290 289 287 285 284 284 285 284 283 282 281 281 283 283 281 285 283 286 287 291 291 292 292 292 292 292 292 293 293
285 285 285 284 285 285 285 285 286 286 286 287 286 285 285 286 285 284 283 283 283 284 285 280 284 283 285 286 290 291 291 291 291 291 291 292 292 292
285 285 285 284 285 286 285 285 284 284 288 287 287 287 287 287 287 284 281 279 279 280 283 281 281 281 283 283 285 290 290 290 291 291 291 291 291 291
284 284 284 284 285 285 285 285 283 283 283 283 282 284 285 284 286 283 281 278 279 278 281 279 279 280 278 282 283 284 284 288 290 290 290 290 290 287
282 282 283 284 285 286 286 283 282 283 282 281 281 280 280 281 282 282 282 280 279 278 282 282 278 279 279 279 281 282 282 283 283 285 288 289 289 288
282 283 284 285 284 284 283 283 283 283 280 280 278 278 280 281 282 283 284 283 283 281 282 282 279 278 277 276 276 279 280 281 282 281 283 286 288 289
284 284 283 283 282 281 281 281 281 279 278 277 278 279 281 282 280 280 282 282 282 282 282 281 280 279 278 276 276 277 278 279 280 280 281 281 282 284
283 284 282 281 280 279 279 279 278 278 278 278 278 279 280 279 279 281 280 280 280 280 282 283 282 281 279 279 278 277 279 277 280 280 280 281 282 283
282 281 279 277 277 277 278 278 278 279 278 279 279 278 279 279 279 280 280 279 277 277 279 282 285 284 283 281 278 279 279 280 281 281 281 281 282 282
279 277 276 277 276 276 277 277 278 279 279 279 278 278 277 277 277 278 278 278 277 278 279 281 281 280 281 282 285 280 280 280 281 282 283 281 282 284
276 276 276 276 276 277 277 278 278 279 279 277 277 277 277 276 276 276 277 277 277 278 279 280 280 279 277 276 281 288 281 281 281 281 281 282 281 283
276 275 275 276 276 277 278 278 278 278 278 278 277 276 276 276 276 276 276 276 276 277 277 279 279 279 278 278 279 282 286 282 280 280 281 283 285 288
275 275 276 276 276 277 278 278 277 277 277 277 276 276 276 276 275 276 276 278 278 277 276 277 278 284 282 281 278 279 282 286 285 282 282 281 281 282
275 275 276 276 276 276 276 277 276 276 276 276 277 277 277 277 276 276 276 275 275 276 276 278 279 280 280 279 278 279 281 284 287 288 288 286 282 278
275 276 276 276 276 276 276 275 275 275 275 275 275 275 276 275 276 277 276 276 276 276 277 277 278 279 280 280 281 281 282 282 283 282 284 288 288 287

GFSNE_sfc_thetae_042.txt.gz
Theta_e
315 312 307 306 305 303 303 303 301 290 289 290 291 293 293 293 296 292 290 294 296 296 297 298 298 297 298 298 298 299 299 300 300 301 302 302 303 304
311 309 307 300 299 299 297 297 298 295 289 290 288 289 292 292 294 292 291 293 294 296 297 297 297 297 296 297 297 297 298 299 299 300 301 302 303 303
305 305 298 296 295 294 293 292 292 293 289 285 287 288 288 289 290 291 291 291 291 294 295 295 296 296 296 296 296 296 297 298 298 299 300 301 301 301
298 296 294 294 292 292 290 289 290 291 290 285 286 286 287 288 288 287 289 290 289 291 293 294 295 295 295 295 295 295 296 296 297 297 298 299 299 300
296 294 293 291 289 289 289 289 289 289 288 288 285 286 285 286 286 287 287 288 289 291 293 294 293 293 293 294 295 295 295 295 296 296 296 296 297 298
292 291 291 290 289 289 289 287 286 286 286 286 285 285 286 287 286 285 284 286 285 288 289 290 291 292 293 293 293 293 293 293 294 294 295 295 295 296
289 290 290 291 291 290 288 286 286 285 285 285 284 285 284 283 282 284 282 283 282 284 282 282 283 283 285 289 290 291 291 292 293 294 294 294 295 295
286 286 287 290 292 293 292 290 288 286 285 284 284 281 281 281 282 280 279 277 275 282 279 281 282 282 283 283 289 291 292 293 293 293 294 294 294 294
285 285 286 287 287 286 290 290 290 290 289 285 282 281 281 281 280 278 279 277 277 280 279 279 280 281 282 285 290 291 291 292 293 293 293 293 293 294
285 284 284 284 285 285 284 285 285 284 285 285 282 282 282 283 282 280 279 279 280 280 280 276 279 280 281 281 289 290 290 291 292 292 292 292 292 293
284 285 285 284 286 286 283 281 281 281 287 288 287 287 287 287 286 280 275 273 274 277 279 278 278 278 279 281 281 288 289 290 290 291 291 292 292 292
283 283 285 283 285 286 283 281 280 279 280 280 280 281 282 281 286 281 276 268 269 271 278 274 276 277 274 279 279 281 281 286 288 288 289 290 290 287
279 279 281 285 286 286 285 279 280 281 280 277 277 277 277 277 278 278 279 272 268 275 281 281 269 272 278 278 279 279 280 279 280 282 285 286 287 287
279 279 281 285 284 284 282 283 283 282 277 276 275 275 275 274 276 277 280 280 280 279 280 282 278 276 277 276 276 278 279 280 279 279 280 283 286 287
280 282 283 283 283 280 281 282 282 275 275 274 275 273 273 273 273 274 275 281 282 282 283 282 280 279 279 277 277 278 279 280 280 279 278 279 279 280
282 279 281 281 281 279 278 277 276 275 275 274 275 276 277 272 273 274 273 280 279 280 283 283 280 278 278 279 279 278 279 277 278 280 280 280 280 281
280 277 276 274 274 275 275 275 275 276 275 275 276 277 278 277 277 279 278 278 277 277 278 280 282 283 283 282 279 279 279 279 280 279 280 280 281 282
277 274 272 272 273 274 275 275 276 278 278 278 277 277 276 276 276 277 278 277 276 276 277 279 280 280 280 282 285 280 280 281 281 281 281 280 281 283
274 272 271 272 272 272 272 271 276 278 278 277 276 276 277 276 276 276 276 276 275 276 277 279 278 277 275 274 279 286 280 281 281 281 281 281 280 281
274 273 270 272 272 270 270 271 277 277 277 277 277 276 276 276 275 275 275 275 274 274 274 276 277 277 276 275 276 279 285 280 279 279 280 281 283 286
274 271 272 271 270 269 269 268 276 276 277 276 276 276 276 275 275 275 274 277 278 276 274 274 276 282 280 280 276 277 280 285 284 281 281 281 280 282
273 271 272 271 269 266 267 268 269 272 272 270 271 272 274 274 274 274 275 274 274 274 274 276 278 278 277 276 275 276 278 280 284 286 287 286 282 279
271 272 270 269 266 267 266 268 270 272 272 271 272 272 272 272 274 275 275 275 275 275 275 275 277 278 277 277 277 277 278 279 281 282 283 288 288 288

GFSNE_sfc_thetae_045.txt.gz
Theta_e
314 314 311 309 307 305 305 305 302 297 292 292 292 294 294 296 298 294 294 296 297 299 299 300 300 299 300 300 300 300 300 300 300 301 302 303 303 304
312 311 307 305 304 303 301 301 301 300 294 292 290 291 294 296 297 293 293 295 296 298 298 299 299 299 299 299 299 299 299 299 299 300 302 302 303 303
307 307 301 300 297 296 295 296 296 297 295 287 288 289 289 291 293 292 292 292 292 295 297 299 299 298 297 297 297 298 298 298 298 299 300 301 302 302
300 298 295 295 293 293 292 291 292 292 291 287 286 286 287 289 289 289 290 292 291 293 295 296 296 296 296 296 296 296 296 296 297 297 298 299 299 300
296 295 293 292 291 290 290 290 290 291 289 288 285 285 285 286 286 288 288 288 289 291 294 294 295 294 294 294 295 295 295 295 296 296 296 297 297 298
292 292 291 291 290 289 289 287 287 287 287 287 286 285 286 287 287 286 285 287 286 289 290 290 291 292 292 293 293 293 293 293 294 294 295 295 295 296
289 290 291 292 292 291 288 287 287 286 286 286 285 285 285 285 284 285 284 283 282 283 281 282 282 282 283 288 289 290 290 291 293 294 294 295 295 295
286 287 288 289 292 293 292 291 289 286 285 285 284 283 283 283 282 282 280 276 275 281 279 280 281 280 281 282 289 290 291 292 293 293 294 294 294 294
285 285 285 287 286 285 289 290 290 291 289 286 283 282 281 280 279 277 279 276 277 279 279 278 280 280 281 284 289 290 291 292 292 293 293 294 294 294
283 282 283 283 285 285 284 284 284 284 284 285 284 282 281 281 281 280 279 278 279 280 280 274 278 278 280 280 288 289 289 290 291 291 292 292 292 293
281 282 282 282 286 286 283 282 281 281 286 289 287 287 287 288 286 279 274 272 274 276 279 277 277 277 278 278 280 287 288 288 289 289 290 290 290 291
280 280 285 283 286 287 281 278 278 278 279 279 278 279 281 280 285 280 275 268 267 268 277 274 276 276 273 278 279 279 279 284 286 287 287 288 288 284
278 278 280 286 286 286 285 278 279 280 280 277 276 276 276 276 277 277 278 270 265 269 279 279 274 278 278 274 278 278 278 278 278 280 284 286 286 286
279 279 280 285 284 284 282 283 283 281 276 276 275 274 274 273 274 276 279 276 275 277 280 282 278 277 277 276 276 278 278 280 278 279 278 282 286 287
279 282 284 283 283 280 281 282 281 275 275 274 275 272 272 272 271 272 274 277 276 279 283 281 280 280 278 277 276 277 278 278 279 279 278 276 278 279
282 277 281 282 281 279 278 277 276 275 274 274 274 276 276 271 272 273 271 274 274 275 280 283 282 281 278 278 278 277 278 277 278 280 280 280 280 281
280 276 275 274 273 274 275 275 275 276 274 274 274 276 277 278 277 279 278 277 275 274 275 279 282 282 281 279 278 280 279 279 281 280 279 279 281 282
277 274 272 272 272 274 274 274 275 275 277 278 278 277 276 276 276 277 277 276 274 274 274 275 277 278 278 279 284 280 280 280 281 281 281 280 280 283
275 272 271 271 271 271 270 269 269 274 278 277 277 276 276 276 276 275 275 275 274 274 274 275 274 274 272 271 277 284 278 279 279 279 281 280 279 280
274 272 269 271 270 269 268 268 270 272 277 277 276 276 276 275 275 275 275 273 273 273 273 273 273 274 273 273 274 277 283 278 278 277 278 279 281 285
273 271 271 270 269 268 269 266 265 269 271 272 272 269 270 268 273 273 274 277 277 276 274 273 275 281 278 278 274 275 277 282 282 278 278 278 278 279
273 271 271 270 268 265 265 266 266 269 270 270 269 269 269 269 271 272 273 273 274 274 274 275 276 275 275 274 273 274 276 278 282 283 285 284 279 277
271 271 269 268 265 264 263 265 267 269 269 270 270 270 270 270 272 273 273 274 274 274 274 274 275 276 276 276 276 276 276 276 277 278 280 285 286 286

GFSNE_sfc_thetae_048.txt.gz
Theta_e
313 315 311 311 309 309 308 306 305 298 294 294 293 295 296 299 301 299 300 303 303 302 302 301 301 302 302 302 303 303 303 302 302 302 303 303 304 305
313 312 311 306 306 305 304 303 303 302 297 293 292 293 295 297 300 296 296 300 301 301 301 301 301 301 301 302 302 302 301 301 301 301 302 303 304 304
304 305 302 301 300 299 298 298 297 298 297 290 289 290 290 293 295 293 295 294 294 300 300 300 299 300 301 301 299 299 299 299 300 300 301 302 302 303
298 297 295 296 294 294 293 293 293 294 293 289 287 287 288 290 290 290 291 293 292 294 297 297 299 299 298 298 298 298 297 297 297 298 299 299 300 300
294 294 293 293 292 291 291 291 290 291 289 289 286 286 286 287 286 288 288 290 291 293 295 296 296 297 297 296 295 295 295 296 296 296 297 297 298 298
291 291 291 291 290 289 288 287 287 288 287 287 286 286 286 286 287 286 286 288 287 290 291 292 292 292 293 293 293 293 293 293 294 294 295 295 296 296
289 290 292 293 294 292 289 287 287 286 286 286 285 285 285 285 284 286 285 284 284 285 283 282 282 282 283 287 288 290 291 291 292 293 294 295 295 296
286 286 288 289 290 294 293 292 290 287 285 285 284 283 284 284 284 283 281 279 276 280 279 279 281 281 281 281 287 290 291 292 293 293 294 294 295 295
284 282 284 286 286 285 288 289 289 291 290 285 283 281 280 280 279 276 278 274 276 278 279 278 279 280 281 283 288 289 290 291 292 293 293 293 294 294
276 275 276 279 285 285 281 281 282 282 282 284 283 281 281 280 280 278 278 277 279 279 279 273 277 277 279 279 287 289 290 290 291 291 292 292 292 292
279 280 280 280 286 287 281 279 279 279 285 288 286 287 287 287 285 279 274 271 273 276 278 277 276 277 278 278 279 287 288 288 288 289 290 290 290 290
278 279 286 284 287 287 280 278 277 277 279 279 278 279 280 279 284 280 275 267 267 269 277 273 275 276 272 277 278 279 279 284 286 287 288 288 288 284
278 279 280 286 286 285 285 278 279 280 279 276 276 276 275 275 277 277 278 269 263 267 278 277 274 279 278 275 278 278 278 279 279 281 285 287 287 287
279 279 279 285 284 284 281 283 283 282 276 275 275 274 273 272 274 275 278 275 274 274 277 277 278 277 276 276 276 278 278 278 278 279 279 282 286 288
279 282 284 284 284 280 281 282 280 275 274 273 274 272 271 271 270 271 273 276 274 276 280 281 280 279 279 277 276 278 278 276 278 278 278 277 278 278
282 277 280 281 280 279 277 277 275 275 274 273 273 275 276 270 272 275 276 278 271 275 277 277 281 281 278 279 278 276 277 276 275 276 277 279 280 280
280 276 274 273 273 274 274 275 275 276 274 274 274 275 277 277 277 274 277 277 273 272 273 275 277 278 279 278 277 277 277 278 280 281 281 280 281 282
278 274 272 271 272 273 273 274 274 275 274 277 277 277 276 276 276 277 276 273 273 273 273 273 270 271 274 276 282 278 279 279 280 280 280 279 279 281
274 272 270 270 270 271 270 268 267 270 269 274 276 276 276 276 276 274 273 273 273 273 273 273 265 267 271 270 275 282 276 277 277 277 278 278 278 279
273 272 269 270 270 269 267 267 268 269 269 271 269 275 275 275 274 273 272 271 271 272 272 273 273 272 271 271 272 276 281 277 276 276 276 278 280 283
273 270 271 270 269 268 268 265 263 266 266 264 264 266 266 265 269 270 271 275 276 274 273 273 275 281 278 277 273 274 277 281 281 277 276 276 276 278
272 270 271 269 268 265 265 264 265 267 267 266 266 266 267 266 268 269 270 270 271 272 272 274 275 274 274 273 272 272 274 277 281 282 283 282 278 275
270 270 269 268 265 264 263 264 265 267 267 267 268 268 266 267 270 271 271 272 272 272 272 272 274 275 274 274 275 274 275 275 276 276 278 283 283 284

GFSNE_sfc_thetae_051.txt.gz
Theta_e
316 315 311 309 308 309 308 308 305 299 297 298 295 295 296 295 300 302 302 306 308 308 308 307 305 305 305 305 305 305 306 306 306 306 306 305 305 306
309 310 310 306 306 305 304 304 304 303 297 297 293 293 295 297 300 299 300 305 307 306 305 304 303 303 303 304 303 303 304 305 304 304 305 305 305 305
301 301 298 299 298 297 297 297 297 297 295 293 291 291 292 294 295 294 297 295 299 303 303 303 303 302 302 301 302 303 303 302 302 302 303 303 303 303
297 297 295 296 294 294 294 293 293 294 292 291 288 288 288 290 291 291 293 294 293 295 299 300 300 300 300 301 301 300 299 300 300 299 299 300 301 301
292 291 291 292 291 291 291 290 290 291 289 289 287 287 286 288 287 288 289 290 292 293 295 297 298 299 298 299 299 299 297 296 297 297 298 298 298 299
290 290 290 290 290 289 288 288 288 288 288 288 287 286 287 286 287 287 286 288 288 291 292 293 293 293 295 294 294 294 294 295 295 295 296 296 296 296
289 289 291 294 295 293 289 287 287 287 287 286 286 286 286 286 285 286 285 286 286 286 284 284 283 283 283 287 288 290 291 292 293 294 294 295 295 296
286 286 288 289 289 294 294 294 291 286 285 285 284 283 283 284 284 284 282 280 277 280 279 279 281 281 281 281 287 289 290 291 292 293 294 295 295 295
279 278 284 285 285 281 286 288 287 289 289 283 280 279 279 279 277 275 277 274 275 278 278 277 279 279 279 282 288 289 290 291 292 293 293 294 294 294
277 272 273 275 280 281 279 280 280 280 282 283 281 280 280 280 279 277 277 276 278 279 279 272 276 277 278 279 286 289 290 291 291 292 293 293 292 293
278 278 279 280 287 287 280 279 278 279 284 287 286 286 287 287 285 278 276 271 273 276 278 276 276 276 278 277 279 286 289 289 288 289 289 290 290 291
277 278 285 284 287 287 279 278 277 277 278 278 278 278 279 278 283 279 274 266 266 268 276 273 275 276 272 277 278 279 279 284 286 288 288 288 289 284
278 279 280 286 286 285 285 278 279 280 279 276 275 275 275 276 277 278 277 268 263 266 277 274 267 278 278 276 277 278 278 279 278 280 285 286 288 287
279 279 279 285 285 284 281 283 283 280 275 274 274 274 273 272 273 274 277 274 273 272 275 271 272 273 276 276 276 277 277 277 276 279 279 282 286 287
280 282 284 283 284 280 281 282 280 274 274 272 273 271 270 271 270 271 273 275 273 275 279 271 273 276 278 276 275 276 278 277 278 278 277 277 277 276
282 277 280 280 280 279 277 276 275 275 274 272 273 275 275 270 272 278 276 278 277 274 276 273 271 275 277 278 278 276 277 274 273 273 274 278 280 281
280 277 274 273 273 273 274 274 274 275 273 273 273 275 277 278 277 278 277 277 274 271 273 274 276 275 275 275 275 277 277 278 279 279 278 279 281 282
278 275 272 271 271 272 272 273 273 274 273 272 273 277 276 276 276 277 277 271 271 272 272 271 269 269 272 274 280 275 277 277 278 278 278 277 278 280
274 272 271 270 270 270 269 267 267 269 266 267 267 268 274 276 276 275 274 271 272 272 272 269 263 267 269 269 273 282 276 276 276 276 277 276 276 278
273 272 269 270 270 269 267 266 267 268 267 268 265 264 266 268 272 272 271 269 270 270 270 271 272 272 270 269 270 275 281 277 275 274 275 277 278 282
273 271 270 269 269 268 268 265 263 265 265 263 262 262 265 262 268 268 269 274 274 272 271 271 273 280 276 275 272 273 276 281 280 276 276 275 275 276
272 270 270 269 268 265 265 264 264 266 266 265 265 264 265 264 266 267 268 268 269 270 271 272 273 269 270 272 272 272 274 276 279 281 282 281 277 274
271 271 269 268 266 264 263 263 265 266 266 266 265 266 265 265 268 269 270 271 271 271 271 271 272 274 273 273 274 274 274 274 275 275 277 282 283 284

GFSNE_sfc_thetae_054.txt.gz
Theta_e
314 314 313 311 309 309 308 307 305 299 298 299 297 293 294 296 298 299 300 305 308 311 314 313 310 309 308 308 308 308 308 307 308 308 309 308 308 309
306 304 303 303 303 302 302 303 303 301 298 297 294 293 295 297 300 298 300 303 305 308 311 310 307 306 305 305 306 306 306 305 306 307 307 307 307 307
298 297 297 298 297 297 297 297 297 297 295 294 292 291 292 294 294 296 297 297 299 306 307 305 304 304 304 305 304 303 303 305 306 305 306 306 306 306
293 295 293 296 294 294 294 293 293 294 293 291 288 289 289 290 291 292 294 295 294 297 300 300 300 300 301 301 301 302 302 301 301 302 302 301 301 302
289 288 288 288 287 289 290 290 290 290 289 289 288 288 287 288 288 289 290 290 292 294 295 296 298 299 300 300 300 300 300 300 298 298 298 298 299 300
291 292 291 288 286 286 287 287 287 288 288 288 287 287 287 287 288 287 286 288 288 291 293 294 295 296 295 296 296 295 294 295 295 296 296 296 296 297
288 290 291 293 295 293 289 288 288 287 287 287 286 286 286 285 285 286 285 285 286 287 285 284 283 283 284 287 288 289 290 291 292 293 295 295 295 295
285 284 287 287 288 293 293 293 291 285 283 278 278 280 280 280 281 280 278 275 275 279 278 279 280 280 281 281 287 289 290 291 292 292 292 293 294 295
277 277 282 284 282 279 285 287 286 289 288 282 279 278 278 278 276 274 276 273 275 278 278 277 279 278 279 281 286 288 290 291 292 292 293 293 294 294
273 271 272 274 279 280 279 279 279 279 282 282 280 279 279 279 279 276 277 275 278 279 278 271 276 277 278 279 285 287 289 291 291 292 292 292 293 293
277 278 279 280 288 287 280 278 278 279 284 286 286 286 286 286 284 278 273 270 273 276 277 276 276 276 277 277 279 288 289 289 289 289 290 290 291 291
277 279 285 284 287 286 279 277 276 277 278 278 277 278 278 277 282 278 274 266 266 268 276 273 274 275 271 277 278 279 280 284 286 287 288 290 289 284
278 279 280 286 286 285 284 277 278 279 278 275 275 274 275 276 277 277 277 267 262 265 276 273 264 273 274 273 277 278 278 279 279 280 285 287 288 287
279 279 279 285 285 285 281 283 283 278 275 274 273 273 273 272 273 273 276 274 273 272 275 270 267 268 266 273 275 277 277 277 277 279 278 282 286 287
279 282 284 283 283 279 281 282 279 274 273 272 273 271 270 270 269 270 272 275 273 275 279 269 268 266 273 274 275 275 277 276 277 277 277 275 277 276
282 277 281 280 280 278 277 276 275 275 274 272 272 274 275 269 271 278 277 272 272 272 276 271 267 269 275 276 276 276 277 276 272 273 274 276 278 279
281 277 275 273 273 273 274 274 274 274 272 273 272 273 276 277 278 278 277 277 275 269 272 274 275 274 273 273 272 274 275 275 277 277 278 278 280 280
278 275 273 271 272 272 272 272 272 273 272 271 269 269 271 272 273 275 277 276 271 271 271 270 268 268 270 273 278 274 274 274 276 276 277 276 277 279
275 272 270 270 271 271 270 269 267 269 265 265 264 264 267 267 274 270 272 273 270 271 271 268 262 264 268 267 273 282 274 275 275 276 276 276 275 277
274 272 270 271 271 270 269 268 267 267 266 267 263 262 262 262 267 270 271 267 268 269 269 266 266 270 269 269 270 274 281 275 275 274 274 276 278 282
274 272 271 271 270 269 270 268 264 265 264 262 260 260 262 259 265 267 267 273 273 271 270 270 272 278 276 274 271 272 275 280 280 276 275 274 275 276
273 271 271 271 270 268 265 265 265 266 265 264 264 263 264 262 264 266 267 267 268 270 270 271 272 269 270 271 270 271 273 276 279 281 282 281 277 274
272 271 270 269 269 267 263 264 266 266 265 265 264 265 263 264 267 268 269 270 270 270 270 270 271 272 272 271 273 273 273 274 275 275 276 281 282 283

GFSNE_sfc_thetae_057.txt.gz
Theta_e
313 314 313 310 311 310 311 310 307 302 301 303 302 300 298 300 301 302 303 303 305 307 309 311 313 312 313 315 312 309 309 308 308 309 310 311 311 311
307 307 306 305 303 303 304 305 305 304 299 301 297 296 296 298 300 301 302 302 304 306 307 308 311 309 308 307 306 306 307 307 307 308 309 310 309 309
301 301 300 299 298 299 301 301 301 301 299 297 295 294 296 295 296 298 299 299 299 303 306 306 305 305 304 304 304 304 303 304 304 306 308 307 308 308
296 296 295 296 296 297 298 297 296 295 296 294 292 292 292 293 293 294 294 295 295 298 300 301 301 301 301 301 301 301 301 302 302 302 302 304 304 304
293 293 293 293 293 293 294 293 293 293 294 293 291 291 291 290 292 291 291 292 293 295 296 297 298 299 300 300 301 301 301 301 300 299 299 299 300 301
293 294 293 292 292 292 292 291 291 291 291 291 290 290 289 289 289 288 289 290 289 291 292 293 295 295 296 296 296 295 294 294 296 297 297 297 297 298
290 291 292 294 295 294 292 290 290 290 290 290 289 289 289 288 286 288 288 289 289 287 287 288 288 289 290 289 289 289 290 291 292 293 294 295 296 296
287 287 288 287 289 292 292 293 291 288 285 286 286 286 285 285 286 285 285 284 284 286 285 286 287 286 287 288 288 289 290 290 291 292 292 293 294 294
284 285 285 285 284 284 287 287 288 289 288 287 285 284 284 284 284 283 283 283 283 285 284 282 285 283 285 285 286 288 289 290 291 292 293 293 294 294
281 281 284 284 286 284 284 283 283 286 286 285 285 285 285 285 285 284 284 284 284 284 284 280 283 282 285 285 285 288 289 290 291 292 292 293 293 294
282 284 285 286 288 286 283 281 281 283 285 286 285 285 285 285 286 285 283 281 279 281 283 281 282 282 283 284 285 286 287 289 290 291 291 291 292 292
282 283 286 286 286 286 283 281 280 281 282 281 281 280 280 281 282 282 282 280 280 279 281 280 281 281 280 283 284 285 285 286 287 288 289 289 290 290
282 282 283 286 285 285 283 281 281 283 280 279 279 279 280 281 282 282 281 280 279 279 281 282 280 281 281 280 282 284 284 284 285 285 285 286 287 288
281 282 283 284 284 285 282 283 283 279 278 277 277 278 279 280 281 281 281 281 281 280 282 279 279 279 279 278 278 282 283 284 284 284 285 285 285 287
283 283 284 283 282 280 281 282 279 278 277 276 277 278 279 280 278 279 280 280 281 280 282 280 279 279 278 277 278 279 280 282 283 283 283 284 283 284
283 282 282 281 280 280 278 278 278 278 278 278 277 278 279 279 279 280 279 279 278 279 281 281 278 277 277 278 278 277 280 278 282 283 282 282 283 283
283 281 279 278 277 276 276 277 277 277 277 278 277 277 278 278 279 280 279 278 277 277 278 279 280 279 279 277 276 278 278 280 282 281 281 280 282 283
281 279 278 277 276 275 275 275 276 276 276 277 276 276 276 277 277 278 278 278 276 276 276 277 277 276 277 279 280 278 279 279 281 281 280 278 279 283
280 278 276 276 275 275 275 275 275 275 274 274 274 275 274 274 275 276 276 276 275 276 276 276 275 273 272 272 279 282 279 280 280 280 280 280 280 282
278 278 277 276 276 275 275 275 275 275 274 274 274 273 272 272 273 274 274 274 274 274 274 275 273 273 272 273 275 279 281 279 279 279 279 281 282 283
277 277 276 276 275 275 275 275 274 273 273 272 272 271 272 271 271 272 272 274 275 275 273 274 277 279 277 277 274 275 279 281 280 279 279 278 277 278
276 276 276 276 276 275 275 273 272 272 272 272 272 271 271 271 270 270 271 271 272 273 273 275 276 275 274 273 273 274 276 279 281 282 282 281 278 275
277 276 276 276 275 274 273 272 272 272 272 271 271 272 271 270 271 271 272 272 272 273 273 273 275 275 274 274 274 274 275 276 278 278 280 282 282 283

GFSNE_sfc_thetae_060.txt.gz
Theta_e
314 313 311 309 311 313 314 313 310 305 307 310 309 304 304 305 303 306 307 304 305 306 308 308 308 309 313 314 315 313 311 310 309 308 308 310 311 312
311 309 307 307 307 308 310 311 308 307 303 305 303 300 300 302 301 303 302 303 304 306 309 308 308 311 310 309 308 307 307 307 307 307 308 309 310 310
305 304 303 306 306 305 307 305 304 306 302 297 298 299 301 300 300 300 300 300 300 302 304 304 305 305 306 305 305 305 305 304 304 305 306 307 308 309
302 302 301 301 302 303 303 303 302 302 303 300 297 298 296 297 297 297 297 297 298 298 300 301 301 301 301 301 301 301 301 301 302 303 303 303 305 305
299 298 298 299 299 299 299 299 299 298 298 297 294 295 294 293 293 295 295 295 296 295 296 297 298 298 298 299 299 299 300 300 300 299 299 299 301 302
296 296 296 296 296 296 295 295 295 296 295 295 293 293 291 291 291 290 293 294 293 294 293 292 293 293 294 295 295 293 293 294 295 297 298 298 299 299
293 293 294 295 295 295 294 294 294 294 293 293 292 292 291 290 289 291 291 291 292 290 290 291 291 292 293 291 290 289 290 291 292 294 295 296 296 297
291 291 291 290 292 293 293 292 292 292 289 290 291 291 289 289 289 288 287 286 286 290 287 287 289 288 290 290 289 289 290 291 291 292 293 293 293 294
288 288 288 288 287 287 288 288 289 289 289 289 288 288 287 287 287 286 286 286 285 287 285 284 287 285 288 287 287 288 289 290 291 291 292 292 293 294
286 286 288 288 288 286 286 286 287 288 288 288 288 288 288 289 288 287 286 286 286 286 286 282 286 285 288 288 286 288 289 290 290 291 292 293 293 293
286 287 288 288 288 286 285 284 284 285 286 285 285 285 285 285 286 287 285 283 282 283 285 283 285 284 286 287 288 286 287 288 290 291 292 292 292 293
284 286 286 287 287 287 286 284 282 284 285 284 284 283 282 283 283 284 284 282 282 282 284 282 283 283 283 287 287 288 288 286 287 288 289 290 290 290
284 284 285 286 286 285 285 284 283 285 283 282 281 282 283 284 284 284 284 284 282 282 284 284 282 283 283 283 285 287 287 287 287 287 287 288 289 289
283 284 285 285 284 285 285 283 284 282 281 280 280 280 281 282 284 284 283 284 284 282 284 283 281 281 280 279 281 285 286 287 287 286 287 287 288 288
285 284 285 283 282 282 282 282 281 281 280 279 279 281 282 283 282 282 283 283 282 283 283 283 281 281 279 278 280 281 282 285 286 286 286 286 286 287
284 285 284 283 281 281 281 280 280 280 280 280 280 281 282 282 281 283 281 281 280 282 284 283 282 281 279 280 280 279 282 280 285 285 286 286 286 286
284 284 283 282 281 280 279 279 280 280 279 280 280 280 279 280 281 282 281 281 279 280 281 283 283 282 281 280 278 280 280 282 285 285 283 282 284 285
284 282 282 282 280 279 278 278 279 279 279 280 280 280 279 279 280 280 280 280 279 280 280 281 281 279 279 281 282 279 281 282 284 284 283 280 281 285
282 283 282 281 280 279 279 279 279 280 280 279 279 279 279 278 278 278 279 279 278 279 279 280 279 277 274 274 282 284 281 282 282 282 283 283 282 284
282 281 282 282 281 280 280 279 279 279 279 278 278 278 277 277 276 277 277 277 277 277 278 279 278 277 275 276 277 281 283 281 281 281 281 283 284 286
281 281 281 281 280 280 280 280 279 279 279 278 278 277 277 276 276 276 276 277 277 277 277 278 281 282 281 279 275 276 281 282 281 280 280 280 278 279
282 281 280 280 280 280 280 279 278 278 277 277 277 277 277 277 276 276 276 276 276 277 277 279 280 279 277 274 274 276 278 281 283 283 283 282 279 277
281 280 280 280 280 280 279 278 277 277 278 278 278 278 277 276 276 276 276 276 275 276 276 276 277 278 277 276 275 275 276 277 279 280 282 284 283 284

GFSNE_sfc_thetae_063.txt.gz
Theta_e
313 312 310 309 309 311 313 313 311 305 307 309 307 305 304 305 302 305 304 304 306 307 308 310 309 308 311 314 317 315 313 314 313 313 312 310 310 310
311 309 308 307 308 309 308 309 309 308 304 306 302 302 302 303 302 302 301 302 303 306 306 306 308 311 311 312 311 310 310 310 310 309 309 308 309 310
306 305 304 307 307 307 308 307 307 307 304 299 299 300 301 299 299 299 300 299 300 301 303 304 304 304 305 306 307 307 306 306 306 306 307 307 307 308
304 304 303 304 303 304 305 304 303 302 302 299 297 297 296 296 297 296 296 297 298 298 299 300 301 302 302 302 302 302 301 301 302 303 303 304 304 305
300 300 299 301 299 300 300 299 299 298 298 296 293 295 295 293 292 294 295 294 296 295 295 296 297 298 299 299 299 298 300 301 301 301 300 300 301 302
297 297 297 296 296 296 296 295 296 295 295 295 294 293 292 292 292 290 292 294 292 293 293 292 293 293 294 295 294 293 294 294 296 297 298 298 299 300
294 294 294 295 295 295 294 293 293 292 292 292 292 292 291 290 288 290 288 289 290 289 287 289 288 289 290 291 291 290 291 292 293 294 295 296 297 297
291 292 292 292 293 293 292 292 290 290 288 288 289 289 289 288 288 285 285 284 283 287 284 284 286 285 286 286 289 289 289 290 291 292 293 293 294 294
288 289 288 287 287 287 288 288 290 289 289 288 285 285 285 285 285 284 284 283 283 284 283 281 284 282 285 287 288 288 290 290 291 291 292 292 292 293
286 286 287 287 287 286 286 285 286 287 287 288 287 287 286 287 286 285 284 283 284 284 283 279 283 282 284 285 287 288 289 290 291 291 292 292 293 293
286 287 288 288 288 287 285 283 283 285 287 286 285 285 285 285 285 284 283 281 280 280 282 280 282 281 283 283 284 287 288 288 289 291 292 292 292 293
284 286 287 287 287 287 285 283 281 282 283 283 283 282 282 282 283 282 282 278 280 279 281 279 280 280 279 283 283 284 284 288 288 288 290 290 291 288
283 283 284 287 286 286 286 283 283 284 283 281 280 280 280 281 282 282 282 281 279 279 282 281 280 279 279 279 282 283 283 283 283 285 289 289 289 289
282 283 284 285 285 286 286 286 284 283 280 279 278 278 279 281 282 282 281 282 282 279 282 280 276 279 279 278 277 281 282 282 282 282 282 287 289 289
283 284 285 285 284 283 284 284 284 280 279 278 278 279 281 281 280 279 281 281 282 281 282 278 280 280 280 277 277 277 279 280 282 281 280 280 281 281
285 284 285 285 284 282 281 281 280 279 279 279 279 279 280 280 279 280 279 279 280 279 283 281 281 280 277 277 277 277 278 276 279 279 280 280 282 283
284 283 282 282 281 280 279 279 279 279 278 279 278 278 279 279 279 280 279 278 277 277 278 280 281 280 279 277 276 277 277 278 279 280 279 281 282 282
283 282 281 281 280 279 278 278 278 279 278 279 279 278 278 278 278 279 278 277 276 277 277 278 277 277 277 279 282 276 277 278 279 282 282 280 280 282
283 282 281 281 280 279 279 279 278 279 278 278 277 277 276 276 277 276 276 276 276 276 276 276 274 274 273 271 277 285 277 278 277 279 279 279 279 280
282 281 281 281 281 280 279 279 279 278 278 277 276 276 274 275 274 275 275 274 275 275 275 273 273 274 275 273 273 277 284 279 278 277 277 279 281 285
281 281 282 281 281 280 280 279 278 278 278 277 276 275 276 276 275 274 275 278 277 275 274 275 277 283 280 279 275 275 277 282 281 277 276 277 277 277
281 281 281 281 281 281 280 280 279 278 277 276 276 277 277 276 275 274 275 275 276 276 276 278 279 278 277 275 273 274 275 277 281 283 284 283 278 274
283 282 282 281 281 281 280 280 279 278 278 277 278 278 277 277 277 277 276 276 276 275 275 275 277 278 277 276 276 275 276 275 276 276 278 283 284 285

GFSNE_sfc_thetae_066.txt.gz
Theta_e
312 311 310 309 310 311 313 312 310 304 304 305 299 298 299 299 301 300 300 304 306 306 307 309 311 309 312 314 316 315 316 317 319 320 319 319 317 314
309 308 307 307 307 308 308 309 309 307 303 302 298 297 299 300 300 299 300 301 302 304 305 306 307 309 310 311 312 313 312 312 313 313 313 312 311 311
305 304 303 306 305 304 303 303 301 304 302 297 298 298 297 296 296 297 298 297 299 301 302 303 304 305 305 305 306 307 308 308 308 308 308 308 309 309
303 303 301 303 301 300 299 297 297 295 295 297 295 295 294 292 291 295 296 297 296 297 299 300 301 301 302 303 303 303 303 303 303 304 305 306 305 306
296 295 295 296 293 293 295 295 293 295 294 293 291 293 292 290 291 293 293 290 294 295 295 296 296 297 300 300 300 299 299 300 301 301 301 301 301 302
294 293 293 293 295 295 294 294 294 293 293 293 291 290 290 289 290 287 286 288 287 290 291 292 293 294 294 295 294 293 294 295 296 297 298 298 299 300
293 293 293 294 296 295 293 292 292 290 289 289 289 289 289 288 285 285 282 282 284 284 282 283 284 284 286 290 291 291 291 292 293 294 295 296 296 297
290 288 289 291 292 293 293 292 290 288 287 287 287 286 284 282 282 280 280 276 276 281 279 279 281 280 281 282 288 289 290 290 291 291 292 293 294 294
287 285 286 287 286 284 288 290 289 290 289 284 281 280 280 281 280 279 279 277 278 280 279 277 280 279 281 285 289 288 290 291 292 291 291 292 292 293
284 284 282 282 284 284 283 283 283 284 285 285 282 281 281 282 282 281 280 279 280 280 279 273 278 279 280 281 289 288 289 289 290 291 291 292 292 293
283 284 286 285 288 287 283 281 280 282 287 286 285 285 285 285 284 280 276 274 275 277 279 278 278 278 279 280 282 288 289 290 289 290 291 292 292 292
282 284 287 286 288 288 282 279 278 279 280 280 280 281 281 280 283 279 276 270 272 273 278 275 277 278 274 280 281 281 282 288 289 289 289 290 291 285
280 280 282 287 287 286 286 280 281 281 282 279 277 277 277 278 278 279 279 272 269 270 280 275 269 273 272 274 279 280 280 281 281 283 288 289 289 288
280 281 282 286 286 286 285 286 284 284 279 277 276 276 275 275 276 277 279 278 277 275 277 276 268 269 269 275 275 278 278 280 278 279 279 285 288 289
281 283 285 286 285 283 285 286 285 280 278 276 276 275 274 275 274 275 276 278 276 278 280 273 272 271 276 277 276 277 277 277 280 277 277 277 277 278
286 281 284 285 285 282 281 281 279 278 277 275 276 277 277 273 274 275 273 274 272 275 279 278 275 274 277 278 277 276 275 274 275 276 278 279 280 281
283 281 280 280 279 279 278 278 278 277 276 276 275 276 277 276 277 275 275 272 270 270 274 276 279 277 276 271 272 275 276 275 277 277 275 278 282 283
282 280 279 279 279 279 278 277 277 278 276 275 273 273 273 273 273 274 273 271 270 272 272 273 272 278 275 276 281 276 276 275 276 276 278 280 280 281
281 281 280 280 280 280 278 276 275 276 272 271 270 269 269 269 275 271 271 271 270 270 270 270 267 266 269 272 274 282 275 272 274 277 276 277 277 279
282 281 280 280 280 279 278 277 276 274 274 272 269 268 269 268 268 270 270 269 268 268 268 265 265 265 271 273 271 275 282 271 271 276 276 278 279 283
281 280 281 280 280 279 279 277 276 275 272 272 272 271 270 268 270 270 270 277 276 270 273 273 275 281 278 278 275 275 277 282 281 276 273 275 275 277
281 281 281 281 281 280 279 278 277 278 275 273 273 272 274 273 273 271 271 270 273 275 276 277 278 278 277 275 274 274 275 277 280 282 282 281 277 275
282 281 281 281 281 281 280 279 279 278 278 277 276 275 275 274 275 276 276 276 276 275 275 275 276 277 276 276 276 275 276 275 276 276 277 282 283 283

GFSNE_sfc_thetae_069.txt.gz
Theta_e
311 308 310 309 308 311 313 313 311 304 306 302 299 299 299 300 302 300 301 303 306 306 306 308 309 312 315 316 316 316 317 318 319 321 322 322 321 320
306 307 307 307 307 307 308 309 309 308 304 302 298 299 300 299 300 299 300 300 302 303 305 305 306 307 309 311 313 313 314 315 316 317 318 317 315 313
302 304 304 305 305 304 304 304 302 303 302 297 298 298 295 295 296 297 298 297 298 300 301 303 303 305 306 306 306 307 307 308 309 310 310 310 310 310
302 303 301 303 300 300 300 298 296 293 297 296 296 294 293 292 290 294 296 297 295 296 298 300 300 301 302 302 303 304 304 304 304 305 307 307 306 306
297 297 297 297 294 294 294 296 295 294 291 290 291 293 291 291 291 292 293 289 293 294 295 295 296 297 299 300 299 298 299 300 301 302 302 302 302 303
292 292 292 293 292 293 294 294 294 293 293 292 291 290 290 290 290 285 285 286 285 287 289 292 293 294 294 295 294 294 294 295 296 297 298 298 299 300
293 294 293 294 296 295 293 292 292 290 289 289 289 289 289 288 283 283 281 281 282 281 280 281 282 282 285 292 291 290 291 291 292 293 294 296 296 297
290 290 290 291 293 294 293 293 291 290 288 287 285 285 283 282 281 280 279 276 276 280 279 278 280 279 280 280 289 289 290 290 290 291 291 293 294 294
287 285 285 288 286 284 289 290 290 291 289 285 281 280 280 281 280 279 279 276 278 280 278 276 278 279 280 284 289 289 290 290 292 291 291 291 292 292
284 281 280 281 283 283 283 283 283 283 284 285 282 282 282 282 282 281 280 279 279 279 278 273 277 278 279 280 289 289 289 289 289 291 291 291 292 292
282 284 285 284 288 288 283 281 281 283 287 287 286 286 286 286 284 280 277 274 275 276 278 277 277 278 279 280 281 289 289 290 289 289 290 291 292 292
282 283 289 287 290 288 282 280 278 279 281 280 279 281 281 281 284 279 277 269 271 272 278 275 277 277 273 279 280 281 281 287 289 289 289 290 290 284
280 281 282 289 289 288 286 280 280 281 282 279 277 277 277 278 278 279 279 272 268 269 279 274 268 272 270 273 278 279 279 280 280 281 286 288 289 288
280 280 282 288 288 287 286 286 285 284 278 277 277 277 276 276 277 277 279 277 276 275 277 273 267 268 265 267 273 277 277 278 277 278 277 283 286 288
281 283 286 287 286 284 285 286 286 280 278 276 276 276 277 277 275 274 275 277 275 277 280 271 270 266 268 267 269 273 277 276 278 274 275 275 276 277
286 283 284 285 285 282 282 281 280 279 278 277 277 278 278 274 276 275 272 274 271 274 279 276 272 271 267 272 275 276 277 272 273 274 276 278 278 279
284 281 281 280 280 280 279 279 278 278 277 277 277 277 278 278 277 274 274 271 270 270 273 276 278 276 275 270 273 275 275 274 275 275 273 274 278 279
284 280 279 280 279 280 279 278 278 279 278 277 276 276 276 274 274 273 271 270 269 270 270 272 272 278 278 277 280 276 276 274 274 274 275 271 277 278
282 280 280 280 280 280 279 278 277 278 278 277 276 274 272 270 275 271 270 270 269 269 269 268 265 264 264 271 275 283 275 269 271 275 275 274 275 277
281 281 280 280 281 280 279 279 278 277 277 277 274 272 271 272 271 267 268 266 265 266 268 264 263 263 268 271 269 275 281 269 269 274 274 276 278 282
281 281 282 281 280 281 281 280 278 277 277 275 275 274 272 271 272 271 269 277 275 269 271 270 271 280 276 276 273 274 276 281 280 276 272 274 275 276
282 281 282 282 281 281 281 280 279 279 279 276 276 276 274 273 274 273 273 271 271 272 273 274 277 277 276 275 273 274 275 277 280 282 282 281 276 273
282 282 281 281 281 278 277 277 278 278 278 277 277 276 275 275 276 275 274 274 275 275 276 275 275 275 274 274 275 275 274 274 276 275 277 282 282 283

GFSNE_sfc_thetae_072.txt.gz
Theta_e
308 309 310 307 307 309 312 311 311 304 305 301 298 299 300 301 301 301 301 304 305 306 306 307 308 311 314 316 316 316 317 319 320 321 324 324 323 323
305 304 303 303 304 307 308 309 309 309 304 301 298 299 300 299 300 299 300 300 302 303 304 305 307 308 309 310 311 312 313 314 316 319 320 320 319 317
300 301 302 303 304 304 304 304 303 303 303 297 297 297 295 296 296 297 297 297 297 300 302 303 302 304 306 306 306 307 307 309 310 311 312 313 313 313
301 300 300 302 301 300 301 299 297 297 299 296 295 294 293 293 293 294 296 296 294 296 298 299 300 301 302 302 302 304 304 305 305 306 307 308 308 308
296 298 298 298 296 296 297 296 296 295 294 294 291 293 291 291 291 292 293 289 292 293 294 295 296 297 297 299 299 299 299 300 301 302 303 303 304 304
292 292 293 295 295 294 295 295 295 293 294 292 291 290 290 290 289 285 288 285 284 286 288 290 292 294 294 295 295 294 294 295 296 297 299 299 299 300
294 293 293 294 296 296 294 293 293 291 290 290 289 289 289 288 284 284 282 281 281 281 281 281 281 281 285 291 290 290 291 291 292 293 294 295 296 297
291 290 291 292 294 295 294 293 292 291 289 289 287 287 283 283 282 280 280 276 277 281 279 278 279 278 279 280 289 290 290 292 292 291 291 292 293 294
288 287 288 288 286 284 290 290 291 292 290 287 284 283 281 282 281 279 279 277 278 280 279 276 278 278 280 283 289 289 290 290 291 292 291 291 291 292
286 285 280 280 283 283 283 283 282 283 284 285 283 282 282 282 282 281 280 279 279 279 278 274 277 278 279 280 289 289 289 290 290 290 292 291 292 292
285 283 283 282 287 288 282 282 282 283 288 288 288 288 288 288 284 280 278 276 276 277 278 278 277 278 278 279 280 289 289 290 289 289 289 291 291 292
283 284 290 285 290 289 282 281 279 280 281 281 280 281 281 281 285 280 279 274 275 274 278 276 277 276 273 278 280 280 280 288 289 289 289 290 290 283
281 282 283 291 291 289 286 280 280 281 283 279 278 277 277 278 279 279 280 275 271 271 280 275 268 272 270 272 277 279 278 279 279 281 285 287 289 288
280 281 282 288 289 288 286 286 286 284 279 277 277 276 276 277 278 280 280 279 278 276 278 274 267 268 264 267 272 277 277 277 277 277 277 282 285 286
280 282 285 288 288 287 287 287 288 280 278 277 276 276 276 277 277 278 279 279 275 277 279 270 270 265 266 266 268 271 276 276 275 273 275 275 275 276
285 283 285 286 286 283 283 282 281 280 278 277 277 278 279 277 278 278 275 275 271 275 279 276 269 268 265 270 270 272 275 272 272 273 274 276 277 278
284 281 280 280 280 280 279 279 278 279 279 278 277 278 278 279 279 277 275 271 271 270 273 276 278 275 273 270 275 276 275 274 274 273 273 273 276 277
285 280 280 279 279 280 279 279 279 279 278 278 278 277 278 278 277 276 273 270 270 271 270 271 271 276 277 276 280 277 277 276 273 273 274 270 274 276
284 280 279 279 279 279 279 278 278 278 279 277 278 276 275 275 277 276 274 274 273 273 270 269 264 266 266 270 276 283 276 269 270 272 273 274 273 276
283 281 280 280 280 280 279 279 278 276 276 276 275 275 274 275 274 274 273 272 273 272 272 269 264 265 268 270 271 276 282 269 268 272 274 275 277 281
282 281 280 280 280 280 280 280 279 277 274 275 276 274 272 271 273 274 272 277 275 273 272 273 272 278 272 275 272 274 276 281 280 271 269 272 275 275
281 281 282 282 282 281 280 280 279 279 277 275 274 274 274 272 272 274 274 274 273 273 274 275 275 274 276 275 273 273 274 276 279 281 282 281 276 273
283 282 282 282 282 282 281 279 278 278 277 277 275 275 273 272 275 276 276 275 275 274 275 275 276 276 275 274 274 274 273 273 275 274 276 281 282 282

GFSNE_sfc_thetae_075.txt.gz
Theta_e
306 306 307 306 307 308 309 310 308 303 305 301 298 300 301 301 302 301 302 305 305 306 306 307 308 309 311 314 315 316 317 319 320 321 322 324 325 325
304 303 302 302 302 305 306 308 309 308 304 302 299 299 300 300 301 299 299 300 302 303 304 304 305 307 308 309 310 311 312 313 316 318 322 322 322 321
300 300 300 301 301 302 303 304 304 303 304 296 297 297 296 297 297 297 297 297 297 300 301 302 302 303 305 306 307 307 308 309 312 314 316 316 317 316
299 299 300 301 299 298 300 300 299 298 300 296 295 294 293 293 294 294 296 295 293 296 299 299 299 301 303 302 302 303 304 305 306 308 309 310 310 311
295 297 297 297 297 297 297 297 296 296 295 295 291 293 291 292 292 292 292 288 290 292 294 295 297 297 299 298 298 298 299 300 301 302 303 304 305 306
291 292 295 295 296 295 295 295 295 294 294 293 292 290 290 290 290 287 288 285 284 285 287 290 292 294 295 295 294 293 293 294 296 297 299 299 300 301
293 293 294 295 296 296 294 293 294 292 291 290 289 289 289 288 286 284 284 282 282 281 281 280 281 281 284 288 288 291 291 291 292 293 294 296 296 297
292 292 293 294 295 296 295 294 293 291 289 289 288 288 287 285 283 282 281 278 279 280 279 278 279 279 280 280 289 290 291 292 292 292 291 292 293 294
290 288 288 290 287 285 290 291 292 293 291 289 287 283 282 283 281 279 280 279 278 280 279 276 279 279 280 282 289 289 290 290 291 292 291 291 291 292
287 286 286 284 282 283 282 282 282 283 283 284 283 281 282 282 282 282 281 279 280 279 278 274 278 278 280 280 288 289 289 290 290 290 292 291 292 292
286 285 284 281 285 288 283 282 282 283 288 289 289 289 289 288 285 281 278 277 277 277 279 278 278 278 279 280 281 289 289 290 289 290 290 290 291 292
285 284 288 284 288 289 282 281 280 281 281 281 280 281 280 283 287 280 279 273 275 274 278 276 278 277 275 279 280 279 280 288 288 289 289 289 290 283
282 281 282 291 290 290 287 280 281 281 283 280 278 277 278 279 279 279 279 275 273 274 280 278 273 275 273 274 277 278 278 279 279 280 284 285 288 287
280 280 281 289 291 290 288 286 286 284 280 278 277 276 277 278 279 279 280 279 279 278 281 278 271 271 266 270 273 277 277 277 277 277 277 281 283 284
279 282 285 287 289 288 289 288 288 281 279 277 277 277 277 278 279 279 279 280 279 280 281 275 273 267 268 269 269 272 275 276 275 273 274 275 275 276
285 281 285 286 287 285 284 284 282 280 279 277 277 278 279 278 278 279 279 278 277 278 280 278 273 271 268 271 271 270 270 270 272 272 274 275 276 277
282 280 280 280 281 280 280 279 279 280 280 278 277 277 278 279 279 278 278 276 274 274 277 278 279 276 274 272 274 275 275 274 274 272 273 273 275 276
283 279 278 279 279 280 280 280 279 280 278 278 277 277 277 277 276 276 276 274 274 274 274 275 275 275 276 277 279 276 277 277 274 273 274 271 273 275
285 283 280 279 280 280 279 278 277 278 277 277 276 275 275 275 278 276 276 276 274 275 274 274 271 270 269 271 277 283 277 270 270 272 273 273 273 276
284 283 281 281 280 279 279 279 279 277 277 277 276 274 273 273 272 273 273 272 272 272 271 271 269 267 268 268 271 277 282 272 270 271 269 275 276 281
282 282 281 281 280 280 280 279 278 278 276 274 274 275 273 272 273 273 272 277 275 271 272 274 275 279 272 271 272 275 278 281 279 270 268 272 275 275
282 282 282 281 281 279 279 280 279 279 279 276 276 275 272 271 273 273 273 272 273 274 275 276 277 274 271 271 273 274 276 278 280 281 282 280 275 272
282 281 281 282 282 282 281 281 280 280 279 279 277 275 274 273 274 275 275 275 275 274 275 274 275 277 275 276 275 274 275 275 275 274 276 280 282 282

GFSNE_sfc_thetae_078.txt.gz
Theta_e
304 304 305 306 307 306 307 308 305 300 302 300 300 300 301 300 302 302 303 305 306 306 306 307 308 308 310 313 314 314 315 317 318 321 322 322 325 326
304 303 303 302 302 303 306 306 307 304 300 301 299 299 300 300 301 300 300 301 302 303 304 304 304 306 308 309 310 311 312 314 316 319 322 322 323 324
299 299 300 300 300 301 304 303 302 303 303 297 298 298 297 298 297 298 298 297 297 300 301 302 302 303 304 305 307 308 308 310 312 313 315 317 320 321
298 298 298 300 298 298 298 298 299 299 300 297 295 294 294 294 295 295 296 295 294 296 299 299 300 302 302 301 302 302 303 304 306 308 310 311 313 314
293 294 295 295 294 295 297 298 297 296 296 296 292 293 292 292 292 293 292 291 289 292 294 297 298 298 299 299 297 298 298 300 301 302 303 305 306 307
291 291 293 296 296 296 296 296 296 294 294 294 292 291 291 291 291 288 289 287 284 285 288 289 291 294 296 295 293 293 293 294 297 298 299 300 301 302
294 294 294 295 297 296 295 294 294 293 291 290 290 290 289 288 288 287 286 283 281 282 282 281 282 282 285 287 289 291 292 293 292 293 295 297 297 298
293 292 294 295 295 296 295 295 294 292 290 289 289 289 289 287 285 284 280 277 278 281 280 280 280 279 280 282 289 290 292 292 293 292 292 293 294 294
291 289 289 291 288 288 291 291 292 292 292 290 288 287 286 285 282 279 280 280 279 280 280 278 279 279 281 282 289 290 290 290 292 292 291 291 292 292
288 287 287 286 285 285 282 282 281 283 283 284 284 283 283 283 283 282 281 280 280 280 279 276 278 279 280 281 288 290 290 290 290 291 292 292 292 293
287 287 287 285 287 289 282 281 281 282 288 290 290 289 289 288 285 281 280 277 277 278 279 278 278 278 279 280 282 290 289 290 290 290 290 291 291 292
286 285 289 284 287 290 280 280 279 280 281 281 280 281 282 285 288 281 281 278 277 276 279 277 278 278 276 280 281 281 281 288 288 289 289 289 290 284
285 284 284 290 289 291 286 279 280 281 283 279 278 278 278 279 279 280 280 277 273 274 281 278 275 278 277 277 279 280 280 280 280 281 284 286 288 286
282 282 281 288 291 291 288 286 286 284 280 278 277 276 276 277 278 280 280 279 279 278 281 278 274 276 274 272 274 278 278 278 278 279 278 282 283 284
280 282 285 288 290 290 290 289 288 279 278 277 277 277 278 278 278 278 279 279 279 281 281 279 278 272 270 271 272 273 277 277 277 275 276 276 276 277
286 282 284 285 287 286 285 285 282 281 279 277 276 277 278 276 278 279 278 278 276 278 281 278 275 273 270 272 272 271 273 272 275 275 276 276 277 278
282 280 280 280 280 280 280 280 279 280 280 278 276 276 278 279 279 278 278 275 272 273 276 278 279 277 276 274 273 275 275 274 274 272 274 273 276 276
282 280 279 279 280 280 280 279 279 280 278 279 276 276 277 277 277 276 275 274 273 273 274 276 276 275 276 278 280 277 277 276 273 273 274 272 274 275
284 282 280 279 280 280 279 278 277 278 278 276 276 275 275 274 277 275 273 273 272 272 272 272 270 270 269 271 278 283 275 274 272 274 273 273 272 278
286 284 283 281 280 280 279 278 278 277 277 277 275 273 273 273 270 272 273 270 269 269 269 265 265 264 267 269 269 277 283 273 271 272 273 276 277 281
285 284 283 282 282 281 280 279 279 278 277 275 275 274 273 269 271 272 271 277 274 267 268 269 271 277 270 268 268 273 277 281 280 272 270 272 274 276
284 284 283 282 282 281 280 280 278 279 278 276 276 275 274 272 270 271 272 271 271 271 270 270 275 276 269 270 270 272 275 278 281 282 282 279 273 271
284 283 282 281 281 280 280 279 279 279 279 279 277 276 274 271 273 274 273 273 271 271 271 272 275 276 273 273 273 273 274 275 276 275 277 281 282 282

GFSNE_sfc_thetae_081.txt.gz
Theta_e
310 310 310 311 312 313 313 312 308 301 302 308 305 305 307 306 305 304 306 306 307 307 306 307 307 308 310 312 313 314 315 317 318 320 322 322 322 324
308 309 309 310 310 310 310 310 309 306 301 307 303 303 304 303 303 302 302 302 303 304 304 304 304 306 307 309 310 311 312 314 315 317 321 322 323 324
305 305 305 306 307 307 308 308 307 307 303 301 301 300 300 300 299 299 299 298 298 301 301 302 302 303 304 305 306 307 308 310 313 314 317 319 322 323
302 303 303 303 304 305 305 304 303 304 303 301 298 296 296 297 296 296 296 296 295 296 299 299 301 301 301 301 302 303 303 304 306 308 310 312 316 317
298 299 300 301 301 301 302 302 302 300 300 300 296 296 295 294 294 294 293 292 290 293 295 298 298 299 299 298 297 297 299 300 302 303 304 306 308 310
296 297 297 299 300 299 298 299 298 297 297 297 295 293 293 293 293 290 290 290 288 289 290 291 292 294 297 294 293 293 294 295 298 299 300 301 303 304
296 297 297 297 297 298 297 297 296 295 295 294 293 292 291 290 289 290 289 287 286 289 289 288 288 288 291 289 290 292 293 294 293 295 297 298 299 300
296 296 296 297 297 297 296 296 295 294 292 292 292 291 291 291 288 288 286 285 288 287 286 286 286 286 286 289 290 291 292 293 293 292 293 294 295 296
294 293 292 292 291 292 293 293 293 292 293 293 291 291 289 289 287 284 286 287 284 284 285 284 284 284 286 286 289 290 291 291 292 292 291 292 292 293
290 290 290 288 288 288 286 286 286 288 287 288 290 289 289 289 289 289 288 285 284 284 284 282 283 284 285 287 288 290 290 290 290 292 292 292 293 293
291 291 290 288 290 290 286 285 285 286 290 290 289 289 289 288 287 286 284 282 281 282 283 282 282 283 284 285 287 290 290 290 290 291 291 292 293 292
289 288 291 288 291 292 285 285 283 284 285 285 285 284 286 289 287 286 285 283 282 281 282 282 282 282 282 284 285 286 286 288 290 289 290 290 290 290
288 287 287 292 290 290 288 284 284 285 285 283 282 282 282 284 284 283 284 284 282 282 283 283 282 282 282 282 282 283 284 284 284 285 285 286 288 288
288 288 287 290 291 291 290 286 286 286 284 282 281 280 280 281 282 283 283 283 283 283 285 283 282 282 281 279 280 281 283 283 283 283 284 284 283 284
287 287 288 289 290 291 291 290 288 284 283 281 280 280 281 282 282 282 282 282 282 283 283 282 283 280 281 281 281 281 281 282 283 282 282 282 283 283
286 286 287 287 289 289 289 289 285 284 282 281 280 281 280 280 281 282 281 282 282 282 283 282 281 280 280 280 280 280 281 281 282 281 282 282 283 283
285 284 284 284 284 285 285 284 284 285 284 282 281 280 279 280 280 282 282 281 280 280 280 281 281 281 281 280 279 280 280 280 281 281 280 280 281 282
283 282 281 282 283 283 283 282 282 282 282 283 282 281 280 280 280 280 280 280 279 279 280 281 281 280 280 281 282 280 280 280 282 281 280 278 280 282
284 283 283 282 282 282 283 283 282 282 282 282 282 281 280 280 281 280 280 279 279 279 279 280 279 278 276 275 281 283 280 281 281 280 281 280 280 282
287 285 283 283 282 282 282 282 282 282 281 281 280 280 280 280 278 279 279 278 278 278 278 277 277 277 277 276 277 280 283 281 280 280 280 281 281 283
286 286 285 285 284 283 283 283 283 282 282 281 280 279 279 278 278 279 279 279 278 277 276 277 278 280 277 276 275 277 280 282 282 280 279 278 278 279
286 286 286 286 285 284 284 283 283 283 282 281 281 280 280 278 278 277 277 277 278 279 277 278 278 278 276 275 276 277 278 280 282 283 283 281 279 276
286 286 286 285 285 285 284 283 282 282 283 282 281 280 280 278 278 278 278 277 277 276 276 277 278 279 277 276 276 276 276 277 279 279 280 282 283 283

GFSNE_sfc_thetae_084.txt.gz
Theta_e
315 314 313 313 314 315 315 314 310 305 306 310 310 312 312 311 309 308 309 307 307 307 307 306 307 308 310 311 312 313 315 316 317 318 321 322 321 322
312 312 312 313 313 314 314 313 312 310 304 309 311 309 308 306 306 305 305 303 304 305 304 304 304 305 306 309 309 311 312 314 315 317 319 321 323 323
309 311 310 311 311 312 312 310 309 310 305 306 305 304 305 304 301 301 301 300 300 301 302 302 302 304 304 304 305 306 308 309 311 313 315 318 321 323
307 308 308 307 308 310 309 307 308 309 306 302 302 300 300 300 299 298 297 296 295 297 300 300 301 302 301 301 301 302 303 304 305 308 309 312 315 319
305 305 305 306 306 306 307 306 306 304 305 303 302 301 299 297 296 296 294 293 291 294 297 298 299 300 300 297 296 296 298 300 302 302 304 306 308 312
302 303 303 304 305 306 304 304 304 303 302 301 301 297 296 295 295 293 291 291 289 290 291 293 294 296 297 294 293 293 294 295 298 300 301 302 303 306
301 301 302 301 299 302 302 302 301 299 299 297 296 294 293 292 291 292 291 289 288 289 291 293 293 293 295 291 291 292 293 294 294 295 298 299 300 301
299 300 300 297 298 299 298 297 299 298 296 294 294 293 294 293 291 290 288 287 288 290 292 292 290 290 290 291 290 291 291 293 293 292 293 295 296 297
299 298 298 297 296 298 296 296 295 294 295 296 293 293 293 293 291 288 287 288 290 288 289 288 287 286 288 287 290 291 291 291 293 292 291 292 293 294
293 294 296 294 293 293 291 290 291 292 292 292 295 295 293 292 292 291 291 292 289 288 287 285 285 286 287 288 288 290 290 290 291 293 293 293 293 293
292 296 297 295 293 293 289 288 289 289 290 290 290 290 290 291 292 291 289 288 286 285 286 284 284 285 286 287 290 291 290 290 291 292 292 293 293 292
295 295 294 293 293 293 289 290 287 288 289 290 289 290 291 290 288 290 290 288 287 284 285 284 284 284 283 286 288 289 290 289 291 290 290 290 290 291
291 292 293 293 293 294 292 289 287 288 287 287 286 286 287 289 288 287 288 288 286 285 286 286 285 284 285 284 285 286 286 286 287 287 286 286 288 289
291 293 293 293 292 291 292 289 287 287 287 285 284 284 284 284 285 286 285 286 286 286 287 286 285 285 284 283 283 283 285 286 286 286 286 286 285 286
294 293 292 292 293 291 292 290 288 287 285 284 283 284 285 286 285 284 285 284 285 285 285 285 286 284 285 284 284 283 283 284 285 285 285 285 286 286
290 290 291 291 291 292 291 291 288 287 285 285 284 285 284 283 283 285 284 284 284 284 284 284 284 283 283 283 283 283 284 283 284 284 284 284 285 285
288 286 286 287 287 288 289 290 289 287 285 285 284 282 281 282 282 284 284 284 283 283 283 283 284 284 284 283 281 283 283 283 284 284 283 282 284 285
285 283 283 284 284 285 286 287 287 287 286 286 285 284 283 282 282 283 284 283 283 283 282 283 283 282 283 284 284 282 283 283 285 284 283 281 283 286
285 284 283 283 284 285 286 287 286 286 286 286 286 285 284 284 283 282 282 282 282 282 283 283 282 281 280 279 283 284 283 283 283 283 283 283 283 285
288 285 285 284 285 286 286 286 286 286 284 284 285 285 284 284 282 282 282 281 282 282 281 282 281 281 280 280 280 283 284 283 283 283 283 284 285 285
288 286 286 286 287 287 286 287 286 286 285 284 284 284 283 283 283 283 283 282 281 281 280 281 282 283 282 280 277 279 283 283 283 283 282 280 280 281
288 287 287 286 287 287 287 286 286 285 285 284 284 284 284 283 282 282 282 281 281 281 281 283 281 281 278 277 278 280 281 283 284 283 284 282 280 278
288 288 287 287 288 288 287 286 285 286 286 285 285 284 284 282 282 283 282 281 281 281 281 280 280 280 279 279 279 279 280 280 280 281 282 284 284 284

GFSNE_sfc_thetae_087.txt.gz
Theta_e
320 317 315 315 316 316 315 314 310 304 305 309 309 311 312 311 308 309 308 308 308 308 308 306 306 307 309 311 312 313 314 315 316 317 319 320 322 321
315 313 312 313 313 314 314 313 312 309 305 308 310 309 308 307 305 307 305 304 305 305 305 304 304 305 306 307 308 309 310 312 313 315 317 318 320 322
312 312 311 312 312 312 312 312 311 310 306 308 307 306 306 305 302 302 302 300 300 302 302 302 302 304 303 303 304 305 305 307 309 311 313 315 317 322
309 310 310 309 310 310 310 309 308 308 306 304 304 301 302 302 300 298 298 296 296 298 300 300 301 302 301 300 300 300 302 303 304 306 308 310 312 316
308 307 307 307 306 307 307 307 306 306 306 304 300 301 300 298 297 297 295 294 292 295 298 299 299 301 300 297 296 296 297 299 301 303 304 305 307 311
305 305 305 305 305 306 305 305 305 304 304 302 301 298 298 297 296 293 292 293 290 291 293 293 295 297 297 294 294 294 295 296 297 300 301 302 303 305
302 302 303 302 301 303 304 304 303 301 300 299 297 296 295 292 292 293 291 290 289 290 289 291 291 293 293 291 291 293 293 294 295 295 298 300 300 302
300 301 300 298 298 299 299 299 301 299 297 295 294 293 294 293 292 290 289 287 287 290 288 289 288 288 288 289 291 291 292 293 294 293 294 296 297 298
299 299 298 298 299 298 298 297 297 296 295 297 294 293 292 293 291 288 288 288 288 286 287 287 285 284 285 287 290 291 291 292 293 292 292 293 294 295
296 296 297 295 295 296 294 292 291 292 292 293 295 295 295 293 292 291 289 289 287 286 286 282 283 283 284 285 289 291 291 291 291 293 293 293 293 294
293 294 296 296 296 296 292 289 290 290 290 290 291 292 292 294 294 290 288 286 284 283 284 282 281 282 282 283 287 291 290 291 291 293 293 294 294 294
294 295 297 297 296 295 291 289 287 287 287 288 288 289 290 290 290 288 288 285 285 282 283 281 281 281 279 283 285 286 287 291 292 291 291 291 291 288
293 293 294 295 295 296 293 290 289 288 288 286 285 285 286 286 285 284 286 286 283 283 284 283 281 281 281 281 282 284 284 284 285 286 288 288 288 288
291 292 293 295 294 295 294 292 290 289 286 284 283 282 282 283 283 283 283 283 283 284 284 283 281 281 281 280 280 281 282 283 283 283 284 286 287 287
293 294 295 294 294 293 293 292 289 285 284 283 282 282 283 284 283 282 282 282 282 283 284 280 281 278 279 279 279 279 280 281 282 281 281 281 281 282
294 292 292 292 293 291 290 290 286 285 284 283 282 283 283 281 281 282 281 281 280 280 283 281 279 278 277 278 278 278 279 277 280 280 281 281 282 282
290 288 288 288 288 288 288 288 287 286 284 283 282 281 281 281 281 282 281 280 279 279 279 280 281 281 280 277 276 278 278 278 279 279 279 278 280 282
287 285 285 287 286 286 287 287 287 287 285 284 283 281 280 280 281 281 281 279 278 279 279 279 278 278 278 280 283 278 278 278 279 279 279 275 277 281
286 285 284 283 284 284 285 287 286 287 286 285 284 283 281 281 281 280 280 280 279 279 278 279 277 275 274 274 279 285 276 278 278 277 278 278 276 279
287 286 284 284 284 284 284 285 286 285 285 285 284 284 282 281 280 280 280 278 278 278 277 277 276 275 274 273 274 277 284 276 277 276 277 281 281 287
289 287 287 286 284 284 285 286 286 285 284 283 283 283 283 282 281 281 281 282 281 278 276 277 279 284 276 274 272 275 278 284 282 277 281 280 278 277
289 289 287 287 286 286 286 286 285 285 284 283 283 283 282 282 281 280 281 280 280 279 277 278 276 277 272 271 271 273 277 280 283 284 284 283 277 271
289 289 288 287 287 287 287 286 285 284 284 284 284 283 283 281 282 281 281 281 281 279 278 277 277 276 274 274 274 273 275 280 280 279 281 284 284 284

GFSNE_sfc_thetae_090.txt.gz
Theta_e
319 320 317 315 315 315 314 311 307 301 303 305 305 307 307 306 307 308 305 310 309 309 308 307 307 307 308 310 311 311 312 313 314 315 316 317 318 321
317 315 312 312 312 312 311 311 309 306 301 304 304 305 305 305 306 305 304 305 306 306 306 305 304 305 306 307 307 308 308 309 310 312 313 315 316 319
312 312 311 310 309 309 309 308 307 306 303 302 302 301 302 301 301 301 302 300 301 302 303 303 303 304 304 304 304 304 305 305 307 309 311 312 314 316
310 308 308 310 308 308 307 306 305 305 305 302 302 300 300 299 299 298 298 297 297 299 301 301 301 302 302 300 300 299 299 302 304 305 307 309 311 314
307 307 306 306 304 304 304 304 303 304 304 301 297 300 296 297 296 296 295 294 293 297 299 300 300 301 301 298 296 296 296 297 299 302 303 305 307 309
304 305 305 304 303 303 303 302 302 300 301 301 299 297 296 296 296 293 292 293 291 291 294 295 297 298 298 295 294 294 295 295 296 298 301 302 303 306
304 303 303 303 303 303 302 301 300 300 298 296 296 295 294 291 291 292 291 290 290 290 289 290 291 292 294 293 291 293 293 294 295 295 298 299 301 303
300 300 299 299 300 302 301 302 301 299 297 295 293 293 293 293 292 290 289 287 287 289 287 288 289 288 286 286 291 291 292 293 294 293 294 296 298 299
298 298 297 298 297 295 299 299 298 299 298 296 291 291 291 292 291 288 288 287 288 287 287 286 286 282 282 287 291 291 291 292 293 293 293 294 295 296
293 293 293 292 293 294 293 289 289 290 291 293 293 292 292 293 292 290 289 288 286 285 286 283 280 280 281 282 290 291 291 291 292 293 293 293 294 296
293 294 294 292 296 298 292 287 288 288 291 291 292 294 296 295 293 290 287 286 284 282 281 280 279 279 280 280 283 291 291 291 292 293 294 294 294 293
293 293 296 294 297 298 288 287 285 286 286 285 285 288 290 290 294 286 284 285 282 276 280 278 278 279 275 280 283 283 285 291 292 292 292 292 291 287
291 291 293 298 298 296 294 288 286 287 288 284 283 283 283 283 282 282 283 281 276 275 281 280 273 275 277 276 280 282 282 283 283 284 289 288 289 288
290 291 292 297 296 296 295 293 293 291 283 283 281 280 280 279 278 279 282 280 280 279 281 280 275 274 271 272 276 279 280 281 281 281 281 286 288 288
292 292 293 296 296 295 296 294 292 285 283 281 280 278 278 279 279 277 278 280 279 280 281 279 272 271 272 272 274 275 277 280 279 277 278 279 279 280
294 293 294 294 294 293 293 293 286 284 282 281 280 280 279 277 277 277 275 276 274 276 281 276 273 272 271 273 273 273 274 274 276 276 277 278 280 281
292 289 289 288 288 288 288 287 285 284 282 281 280 280 280 279 279 277 277 275 274 276 278 278 279 278 275 273 272 275 276 275 275 275 276 275 277 280
289 288 287 287 287 288 286 286 286 285 283 281 280 280 278 278 278 277 276 274 276 276 277 276 274 273 275 278 281 275 275 275 275 277 277 271 274 279
290 287 287 287 287 287 287 286 286 286 285 284 281 279 277 277 280 279 276 276 277 276 276 275 272 268 268 270 277 284 272 273 274 275 275 275 272 276
290 287 286 286 286 286 286 286 286 285 284 284 282 281 279 278 276 278 279 277 277 277 276 273 275 273 272 272 271 274 284 273 272 272 273 277 280 285
290 287 287 286 285 285 285 286 286 285 285 284 284 282 280 280 280 279 278 281 280 278 278 277 279 283 270 270 270 273 276 285 281 273 272 276 279 278
289 288 287 287 285 285 285 285 285 286 285 284 283 282 282 282 281 279 279 280 281 280 278 277 277 275 269 269 268 269 275 278 283 285 284 281 273 269
288 289 288 287 286 285 285 285 285 285 284 283 283 282 282 281 281 281 281 280 280 279 278 277 277 275 272 271 270 268 271 274 277 279 278 285 285 285

GFSNE_sfc_thetae_093.txt.gz
Theta_e
321 320 319 319 319 318 315 312 310 302 303 305 304 305 305 304 307 305 304 310 310 310 309 308 307 307 308 309 310 310 310 310 312 313 314 314 315 316
320 318 318 317 317 315 313 312 310 306 301 304 303 303 304 304 306 304 303 306 307 307 306 305 304 305 306 306 306 307 307 308 309 310 312 312 313 315
318 318 316 314 313 312 312 310 308 307 303 301 302 301 300 300 300 302 301 299 302 304 303 303 303 304 304 303 302 302 303 304 305 306 308 310 311 314
315 315 314 312 311 311 309 307 307 307 304 301 299 298 299 301 300 299 299 298 298 299 302 303 302 303 302 300 299 299 298 299 301 303 305 307 309 311
315 314 313 311 309 307 307 307 306 305 301 299 297 298 298 297 297 297 296 295 294 298 300 301 301 302 302 298 297 296 296 297 298 300 302 303 306 308
310 311 310 309 307 305 305 304 302 300 299 299 298 297 297 296 296 294 293 293 292 292 296 296 299 299 301 297 294 294 294 295 296 297 300 301 302 305
307 307 307 306 304 306 304 302 301 299 296 293 294 295 294 292 293 293 292 290 291 291 289 290 292 292 295 295 292 293 293 294 295 295 296 299 300 302
303 303 304 302 303 305 306 305 304 299 296 293 294 294 294 293 290 289 289 287 288 290 288 288 290 288 290 288 292 292 292 292 294 294 294 296 298 299
300 300 299 300 300 300 303 303 303 303 301 296 294 295 293 292 292 289 288 288 288 287 287 286 286 285 285 287 291 291 291 291 293 293 293 294 295 296
296 297 296 295 295 296 294 292 292 293 295 295 294 293 292 292 291 292 290 288 285 286 287 284 283 281 281 281 290 291 291 291 293 293 294 294 296 296
292 295 296 295 297 298 292 288 288 288 294 294 294 296 297 297 294 290 286 286 284 284 283 283 278 279 279 280 282 290 291 291 292 293 293 293 293 292
294 293 297 293 298 299 291 288 286 285 285 285 287 290 294 294 296 288 286 284 284 280 280 278 278 278 275 279 282 282 284 291 293 292 292 291 291 285
293 292 293 298 298 299 295 289 288 287 288 284 283 283 283 284 283 283 284 281 282 275 281 278 272 275 274 275 279 281 282 283 283 284 289 289 289 288
292 293 293 296 298 298 297 293 293 290 285 283 282 282 281 280 279 280 282 281 280 280 282 277 272 273 270 270 275 279 279 280 280 280 280 286 288 288
294 294 294 296 297 297 297 294 294 286 285 283 282 281 280 280 279 279 279 280 279 280 281 281 273 271 270 270 273 274 276 279 278 276 277 278 278 278
295 293 294 295 296 295 294 294 289 286 285 283 282 280 280 279 278 278 276 275 273 278 280 280 276 272 270 272 272 272 273 273 275 275 277 277 280 280
292 290 290 290 290 290 290 291 287 285 284 283 280 280 280 281 280 278 277 274 272 276 277 277 280 278 275 275 272 274 275 275 274 274 276 274 277 279
292 289 289 289 288 288 288 288 287 286 284 283 280 280 280 280 279 278 276 273 273 274 274 275 276 275 278 279 281 275 274 275 274 276 276 270 273 277
290 288 288 286 286 287 287 287 286 286 285 283 283 281 280 279 281 279 278 276 273 273 274 275 273 272 273 274 279 284 274 273 274 275 275 274 271 275
290 289 288 287 287 286 286 286 286 285 284 284 282 281 280 279 278 278 278 278 272 271 272 272 273 272 276 276 273 276 283 274 273 272 272 276 278 284
288 289 288 287 286 286 286 286 286 285 285 284 283 281 280 279 278 278 278 281 279 275 277 277 279 283 275 274 274 275 277 284 280 272 270 271 274 276
287 288 288 287 286 285 285 285 285 285 285 284 284 283 281 280 279 279 278 279 279 280 278 274 278 276 274 277 274 272 276 278 283 285 283 280 272 267
287 287 288 287 286 285 285 285 285 285 285 285 284 284 282 281 281 280 279 279 279 279 278 277 277 277 279 278 276 273 273 274 276 275 277 285 285 285

GFSNE_sfc_thetae_096.txt.gz
Theta_e
322 322 320 319 318 318 317 317 313 304 305 305 304 305 305 305 306 304 304 311 312 311 310 309 307 307 308 309 309 310 309 309 310 310 312 313 313 314
321 320 320 320 318 317 315 313 312 308 304 304 303 303 304 304 306 303 303 306 309 308 307 306 305 305 306 306 306 306 306 306 307 308 309 311 311 312
319 318 318 317 317 316 314 311 309 307 304 301 302 301 301 301 301 301 301 300 301 305 305 305 304 304 304 303 302 302 302 303 304 305 307 308 309 311
319 318 317 315 316 315 313 311 311 308 305 301 300 300 300 299 299 300 300 299 297 301 303 304 304 303 303 301 300 299 298 299 299 301 303 305 307 309
319 317 317 314 314 313 312 310 308 306 303 302 298 298 298 298 297 298 297 295 295 298 302 302 302 303 303 301 298 296 296 296 297 298 300 302 303 306
317 316 316 314 315 312 310 309 305 304 301 301 298 297 295 296 296 294 293 294 294 294 297 298 298 301 302 300 296 294 294 294 296 296 297 299 301 303
309 310 311 309 307 310 309 306 304 302 298 295 294 295 294 293 294 293 293 292 293 293 289 289 292 293 294 298 293 293 293 293 294 295 295 298 299 300
306 306 307 303 305 307 307 305 306 303 299 295 294 295 295 292 291 291 290 288 288 288 286 286 288 288 291 291 293 293 292 292 293 294 294 295 297 298
302 301 301 302 302 303 306 306 305 305 305 302 298 295 292 292 291 289 286 286 288 287 286 287 286 286 286 288 293 292 292 291 292 293 293 294 296 298
298 298 298 297 298 299 298 297 299 300 300 299 299 296 294 294 294 291 289 288 286 287 288 285 281 284 283 283 289 291 292 291 292 293 294 295 295 295
292 295 298 297 299 300 295 292 292 292 296 297 297 298 298 298 294 289 285 287 285 284 284 284 280 279 280 280 282 290 292 291 292 293 292 292 292 292
294 292 298 297 299 300 294 292 290 289 288 289 290 293 296 296 297 290 288 287 285 283 283 281 278 279 276 279 281 282 284 290 293 293 292 291 291 283
294 293 294 298 299 300 297 292 292 288 289 285 285 285 286 287 288 286 287 285 281 279 282 280 275 276 275 275 279 281 281 283 283 284 289 289 290 287
293 294 294 296 298 299 298 295 294 291 285 283 283 283 283 283 281 282 284 282 282 284 283 279 275 276 273 271 275 279 279 279 280 280 279 285 288 288
296 296 295 295 296 298 298 296 295 287 285 283 282 282 282 281 280 279 280 281 281 282 282 277 276 272 272 270 273 274 277 279 277 276 277 278 278 278
294 295 295 295 296 296 296 295 292 286 286 285 283 281 280 279 278 279 277 278 277 279 281 281 274 275 270 270 270 271 272 273 274 275 276 277 280 280
294 289 289 289 290 291 291 292 290 287 286 284 282 280 281 280 280 277 278 276 273 276 278 279 279 278 274 273 271 274 275 274 274 274 275 274 277 279
290 287 288 289 289 289 289 289 288 288 286 284 283 282 281 281 280 277 276 275 273 275 274 277 277 274 274 277 280 275 274 275 274 276 276 270 273 277
288 288 287 288 288 288 288 287 285 286 285 284 283 282 281 280 281 279 278 277 275 275 273 275 273 270 268 270 276 284 275 274 274 275 275 274 271 275
286 287 287 287 287 287 286 286 286 284 284 284 283 282 282 281 279 279 279 278 277 275 273 271 272 270 273 272 274 276 283 275 274 274 273 276 277 283
285 286 288 288 287 287 286 285 285 285 285 284 283 282 281 281 280 280 279 281 279 276 276 277 279 281 271 273 273 275 278 283 280 275 272 272 273 275
284 285 286 288 287 287 286 286 285 285 285 284 283 282 281 281 280 279 279 279 280 279 279 275 275 275 272 275 273 274 276 279 284 284 283 280 273 268
284 285 286 287 287 286 286 285 285 285 285 285 284 282 281 280 281 281 279 280 280 279 277 275 277 278 278 278 276 274 274 276 278 278 279 285 285 284

GFSNE_sfc_thetae_099.txt.gz
Theta_e
322 322 321 321 321 321 320 319 316 309 306 306 305 308 308 308 309 307 307 314 315 314 313 310 309 309 309 309 309 308 308 308 308 309 310 311 311 312
322 321 321 322 320 319 318 317 315 314 308 306 304 305 306 306 307 303 304 308 311 311 309 307 306 307 307 307 306 305 305 305 306 307 308 309 309 310
320 320 320 320 319 318 318 316 313 311 306 301 303 302 303 304 303 302 302 301 303 308 307 307 306 305 305 304 303 302 301 302 302 303 305 306 307 308
319 318 318 318 317 317 315 313 311 307 305 300 300 300 301 301 301 299 300 300 298 303 304 304 304 304 305 303 301 299 299 299 299 300 301 304 305 307
320 319 318 317 316 317 315 314 313 309 308 302 298 299 299 301 298 299 297 295 296 299 302 304 304 303 304 303 299 297 296 296 296 297 298 300 302 304
317 318 318 317 316 315 314 314 312 309 307 304 299 297 297 297 298 295 294 294 293 294 298 299 301 301 303 304 299 295 294 294 295 296 296 298 300 302
311 311 313 313 310 314 313 313 310 308 304 301 297 295 294 294 296 294 295 292 292 294 292 293 294 293 293 301 296 295 294 293 293 295 295 296 298 299
304 307 308 305 306 308 309 309 309 307 304 301 296 298 295 294 295 293 291 289 289 293 290 289 289 288 290 293 295 294 293 292 292 294 294 295 296 298
300 301 302 303 303 305 307 306 306 307 308 304 299 298 295 295 294 289 288 288 289 287 288 286 286 286 288 291 295 294 293 292 292 293 293 294 297 297
294 296 299 299 299 301 301 299 301 303 303 302 302 299 299 297 297 293 291 287 286 286 287 284 282 283 283 284 292 293 292 292 292 294 294 294 294 295
296 296 297 298 300 302 298 295 296 295 300 302 301 301 300 300 297 292 288 289 285 284 285 286 280 280 280 281 282 291 292 292 292 293 292 292 292 291
297 295 297 297 299 301 297 295 293 293 292 292 294 297 298 298 298 295 291 290 285 284 285 283 279 280 277 280 281 282 284 292 292 293 292 291 290 283
295 295 295 297 299 299 301 295 295 291 293 290 290 288 290 291 291 288 290 290 286 285 284 281 277 278 277 276 280 282 282 283 284 288 290 289 290 286
292 294 296 297 297 298 299 297 298 293 288 287 286 286 287 288 287 285 285 283 285 286 285 281 277 277 274 272 276 279 279 279 281 281 279 285 289 289
292 294 295 297 297 298 298 298 296 288 287 285 286 286 285 283 282 282 281 282 281 282 283 279 277 273 274 271 273 274 277 279 277 276 276 277 278 278
289 290 292 295 296 296 296 297 293 288 287 287 286 284 282 279 279 279 280 279 278 279 282 279 273 275 270 270 272 272 273 273 274 274 276 277 280 280
288 287 288 288 289 290 290 292 291 288 287 286 283 282 282 281 281 279 278 277 275 279 278 279 278 278 274 275 272 274 275 274 274 274 276 275 277 279
286 285 286 288 288 289 288 289 289 289 287 285 284 283 282 281 280 279 277 276 276 276 277 278 278 274 276 278 280 276 273 276 273 276 276 272 274 277
284 285 285 287 287 288 289 288 288 288 287 285 284 283 282 282 282 279 279 278 275 275 272 275 272 272 270 271 276 283 274 273 274 275 275 277 274 276
284 283 284 285 287 287 287 287 286 285 285 285 284 283 282 282 280 279 279 278 277 272 271 270 275 271 273 272 274 275 282 273 274 275 276 277 279 283
283 283 284 285 285 287 286 285 285 285 285 284 284 283 282 282 281 280 279 281 279 274 275 275 277 280 268 273 275 276 280 283 280 275 275 276 277 277
283 283 283 284 285 286 287 285 285 285 285 285 285 284 283 283 281 280 280 280 279 278 279 279 276 273 273 276 273 273 276 279 283 284 283 282 277 274
282 282 283 284 285 285 286 285 285 285 285 285 284 283 283 282 282 281 281 281 280 279 277 276 276 276 278 277 274 273 275 275 278 280 280 285 284 284

GFSNE_sfc_thetae_102.txt.gz
Theta_e
322 321 321 321 321 321 320 320 316 311 311 306 306 309 309 311 312 311 312 316 319 321 319 315 313 312 313 312 312 311 309 307 307 307 309 310 310 311
321 320 321 322 321 321 320 320 319 316 312 309 306 306 309 308 310 308 308 311 314 314 312 310 309 309 310 309 309 308 305 304 305 306 307 307 309 309
320 320 320 321 321 320 319 319 317 316 313 302 303 304 304 306 304 304 306 305 308 311 310 309 308 307 307 307 306 304 303 302 302 302 304 305 306 307
319 319 319 319 319 319 318 317 316 315 310 301 300 301 302 305 304 303 302 302 302 308 308 307 307 306 306 305 303 302 300 299 299 299 300 302 304 305
316 318 318 318 317 317 317 315 313 310 309 303 299 300 299 302 301 300 300 298 298 303 306 306 306 305 305 304 302 300 298 297 297 297 297 298 301 303
307 310 313 316 317 317 316 316 314 311 309 305 299 299 298 300 301 298 295 296 294 296 300 302 304 305 305 305 302 298 296 295 295 296 296 296 298 300
302 304 308 308 305 309 314 315 314 312 310 307 298 296 297 297 298 298 297 295 295 293 292 294 296 297 299 302 300 297 296 295 294 294 295 295 297 298
298 300 302 303 305 307 307 307 311 311 308 306 302 300 298 299 299 296 292 291 290 294 292 291 293 292 293 294 297 297 295 294 293 294 294 294 295 298
296 296 298 300 301 302 304 306 306 307 309 307 305 304 300 299 298 295 291 290 290 289 290 289 289 289 288 292 298 297 295 294 293 293 293 294 296 296
293 294 296 297 298 299 300 299 302 305 306 306 307 306 304 300 299 299 296 292 287 288 289 287 284 285 284 286 297 297 295 293 293 294 295 294 293 294
294 294 294 295 299 301 299 296 298 299 301 303 303 303 302 302 300 295 291 291 286 286 287 286 282 282 282 282 284 294 294 293 293 295 293 292 292 291
293 293 296 296 299 300 297 297 295 295 294 294 297 300 301 300 299 299 293 291 285 285 285 285 281 281 280 280 281 283 286 293 293 294 292 292 290 284
288 291 293 296 297 298 299 297 296 296 295 291 291 292 293 296 295 293 294 294 286 285 286 284 281 280 279 278 280 282 284 285 285 290 292 291 291 286
286 288 291 293 294 296 297 299 299 297 290 289 288 289 290 290 289 288 287 286 286 287 287 282 278 278 276 274 277 280 280 281 282 282 280 286 290 290
286 287 289 290 292 293 296 298 299 291 289 287 288 288 287 288 286 284 283 284 283 285 285 283 279 275 277 277 276 276 278 279 278 277 277 278 279 278
287 286 288 289 290 291 293 295 295 290 289 289 289 286 284 285 285 284 282 283 282 280 281 279 277 277 271 271 273 274 272 274 275 275 277 277 280 281
287 285 285 284 284 288 289 291 292 289 289 287 285 284 284 284 283 283 283 282 281 279 279 279 278 277 275 274 271 273 274 273 274 275 276 275 277 279
284 283 283 284 285 286 287 288 289 289 288 286 285 285 284 283 282 281 281 283 280 280 279 279 278 273 275 277 280 275 273 274 273 277 276 272 273 277
281 281 282 282 284 285 286 287 287 288 287 286 285 284 284 283 283 281 281 281 280 279 279 279 276 272 270 272 276 282 273 273 276 275 275 275 273 275
281 281 281 282 282 284 284 286 286 286 285 285 285 284 283 282 281 281 280 280 279 276 275 274 277 273 275 272 272 273 282 274 275 276 275 276 278 284
281 281 282 282 281 282 284 285 285 285 285 285 285 284 283 283 281 281 281 282 280 277 275 276 278 281 266 272 274 277 279 282 280 276 275 275 275 275
281 281 282 281 279 282 284 285 285 285 285 285 285 284 283 284 282 281 281 281 280 278 278 278 276 272 270 274 271 274 278 279 283 283 283 281 276 272
279 280 278 278 278 282 283 285 285 285 285 285 285 284 283 282 283 282 281 282 280 279 278 276 275 274 277 277 274 274 276 278 280 280 280 284 285 285

GFSNE_sfc_thetae_105.txt.gz
Theta_e
323 323 322 323 322 322 321 321 318 312 313 313 312 312 315 315 315 316 316 316 321 323 323 321 318 318 318 318 317 316 313 311 310 310 309 310 310 310
322 322 322 322 322 323 322 322 321 316 312 316 313 311 313 313 314 316 313 312 317 320 317 314 314 314 315 314 313 312 310 309 308 308 308 308 308 308
320 320 320 321 320 321 322 321 319 318 314 316 308 307 309 310 309 312 312 313 315 315 314 312 312 312 312 311 311 309 308 307 306 306 306 305 306 306
309 314 318 318 319 320 320 318 318 319 316 314 303 303 305 309 308 306 306 307 309 311 312 310 310 309 309 309 307 306 304 304 303 302 302 302 303 304
304 306 308 310 315 318 318 317 317 316 316 310 300 301 301 305 303 303 303 302 303 308 310 309 309 308 308 307 305 304 302 301 300 299 298 298 300 301
302 303 305 307 308 308 311 316 316 314 311 307 302 300 299 301 303 300 297 299 298 301 305 306 307 307 307 306 304 302 300 299 298 298 297 296 297 299
299 300 302 302 301 304 306 307 311 312 310 307 301 298 297 298 300 300 299 297 296 296 298 302 304 304 305 306 303 300 298 297 297 296 296 295 296 297
294 297 299 299 301 303 304 304 305 305 309 308 304 302 301 302 302 299 297 294 292 296 296 296 301 300 301 301 302 300 298 297 296 296 295 294 295 297
293 294 295 297 298 299 301 302 303 305 306 308 307 305 305 304 302 298 297 298 298 294 296 293 294 295 296 296 301 299 298 297 296 295 294 293 296 296
293 293 294 294 296 297 298 299 300 302 304 305 307 309 309 305 305 303 301 298 290 292 296 290 290 292 291 293 299 299 298 296 295 294 294 295 294 294
290 291 292 294 295 296 296 296 297 299 301 302 303 305 305 305 305 300 294 292 287 287 290 288 285 286 287 288 292 299 298 296 294 295 296 294 293 292
288 289 291 293 295 296 295 294 293 296 299 299 300 301 303 303 302 301 296 295 287 285 288 287 284 285 285 285 288 292 295 295 294 295 294 293 292 290
286 286 288 290 291 292 293 293 294 297 298 296 295 296 297 299 300 300 298 298 292 289 289 287 285 284 285 281 283 286 289 292 292 294 294 293 292 289
285 286 286 288 289 289 290 292 294 296 295 293 291 291 292 294 296 294 296 296 295 289 292 287 285 286 283 281 281 283 285 288 290 290 290 290 292 291
287 287 288 288 288 288 289 290 292 292 292 290 289 290 292 292 287 286 285 285 286 289 291 287 287 285 287 284 282 283 283 285 287 288 287 288 289 288
288 287 288 288 288 287 287 289 291 291 291 290 290 290 286 286 286 285 285 286 284 281 282 285 286 286 284 285 284 283 285 284 285 287 287 287 286 287
288 286 285 285 284 285 286 288 289 289 289 290 287 285 286 286 285 285 285 285 284 281 280 280 281 283 285 282 282 284 282 281 285 285 285 285 285 286
286 283 282 282 283 283 283 285 286 287 288 288 287 286 285 285 285 285 285 285 283 282 281 279 280 282 283 283 284 281 282 282 282 284 285 284 284 285
284 282 281 281 282 283 283 284 284 286 287 287 286 285 285 285 285 283 284 284 283 283 281 280 281 284 281 280 281 283 282 282 282 282 284 284 284 285
282 281 281 282 282 283 283 282 284 285 285 285 285 285 285 285 284 283 283 283 282 281 279 280 281 283 284 282 280 283 283 282 283 282 282 282 284 284
281 281 282 282 283 283 282 283 283 284 285 285 285 285 285 284 283 283 283 284 282 281 278 278 281 283 280 282 280 279 281 283 283 283 282 282 282 281
281 281 281 281 282 282 282 283 282 284 284 285 285 285 285 285 284 283 284 284 283 283 282 281 281 280 281 282 279 279 279 281 284 284 284 285 283 280
280 280 280 281 281 281 281 282 282 283 284 285 285 285 285 284 284 284 283 284 282 280 279 278 279 280 281 280 279 279 279 280 281 281 282 285 285 284

GFSNE_sfc_thetae_108.txt.gz
Theta_e
323 323 323 323 322 322 321 320 316 311 316 321 319 321 321 321 319 317 317 316 319 321 324 325 323 323 325 325 324 323 321 318 315 314 312 312 312 312
316 320 322 322 322 322 321 321 320 316 312 318 318 318 316 316 316 317 317 314 316 319 320 319 318 319 319 320 320 318 317 314 313 312 312 311 311 310
308 309 310 316 321 321 321 321 320 319 315 317 320 317 313 314 312 314 316 316 318 317 319 317 316 316 316 316 316 315 313 312 311 311 310 310 309 309
303 305 305 308 309 315 319 319 319 319 316 314 316 311 310 313 313 312 312 313 316 315 316 315 314 314 313 313 312 312 310 309 308 307 307 306 306 306
300 301 303 305 306 307 307 307 315 317 317 315 314 304 305 306 305 307 307 306 309 310 314 313 312 312 311 311 310 309 307 306 304 303 303 302 302 303
298 299 300 301 301 302 304 305 307 307 314 314 308 300 301 302 305 302 299 301 301 306 309 309 310 310 309 309 308 306 304 303 302 300 299 298 298 298
295 296 298 298 298 301 301 303 304 304 304 308 302 299 300 300 301 302 302 300 297 299 303 304 306 306 307 308 305 303 302 301 300 300 299 298 297 297
292 293 294 296 297 298 299 300 301 301 302 302 305 304 303 304 303 301 300 295 293 297 299 299 303 302 304 306 305 303 301 300 299 298 298 297 296 296
291 291 292 293 296 295 297 297 298 300 302 303 301 303 307 306 304 300 300 299 300 296 300 296 299 299 302 304 304 303 301 300 299 298 297 296 295 297
291 291 291 291 293 294 294 294 295 296 298 301 303 305 306 310 306 304 303 301 294 295 301 295 294 296 298 299 303 302 301 300 299 297 296 295 296 295
290 290 290 290 292 292 291 292 292 293 297 298 300 301 302 303 306 305 300 294 288 289 297 290 288 287 290 292 298 302 301 300 298 297 296 296 295 295
289 289 290 289 290 290 289 288 288 289 293 295 298 298 300 304 303 305 301 296 295 288 291 293 286 286 285 287 292 296 298 299 298 296 296 296 294 293
287 287 288 289 289 289 289 287 287 289 291 293 294 296 297 298 301 303 304 300 295 293 292 292 287 286 287 283 286 290 294 295 294 295 296 295 294 292
286 287 288 288 289 289 289 289 289 289 289 291 291 291 293 294 296 299 300 299 302 298 293 296 287 289 285 283 282 285 288 292 293 293 294 294 294 292
288 289 289 289 289 289 288 288 288 287 288 289 287 289 292 294 291 286 286 287 286 288 291 294 290 289 291 287 284 284 285 287 290 291 291 290 291 291
288 289 289 289 288 288 287 288 288 289 286 286 287 289 291 287 287 286 286 287 286 284 284 286 287 289 288 287 287 286 289 285 289 290 290 290 291 290
288 288 287 287 285 285 285 286 287 288 287 286 286 286 288 287 287 286 287 287 286 284 283 282 283 286 288 286 286 287 287 288 288 288 288 287 288 288
286 285 285 284 284 284 284 284 285 285 286 284 285 285 286 286 286 285 286 286 286 285 282 280 282 282 283 283 288 287 287 286 286 286 288 286 286 288
284 284 283 283 283 284 284 284 284 285 285 285 285 285 285 285 285 285 285 285 285 285 283 282 283 285 283 282 283 288 285 285 284 283 287 287 287 287
284 283 282 283 283 283 284 284 284 284 284 284 284 285 285 285 285 285 285 285 284 283 281 282 284 285 285 283 281 282 286 285 284 284 285 286 286 288
282 282 282 283 283 283 283 284 283 283 283 283 284 285 285 285 285 285 285 286 285 283 281 281 284 287 283 284 280 280 282 285 287 286 284 284 283 282
281 281 281 282 282 282 282 283 282 283 283 283 284 284 285 285 285 285 285 285 284 284 283 283 282 283 284 285 281 280 280 282 286 287 287 286 284 281
280 281 281 281 282 282 282 282 282 282 282 283 284 284 284 285 285 286 285 285 285 284 282 280 281 284 283 282 282 280 280 281 282 282 283 286 285 285

GFSNE_sfc_thetae_111.txt.gz
Theta_e
313 311 316 323 324 323 322 320 316 310 312 316 318 322 323 325 323 323 323 317 320 323 325 325 323 323 325 327 328 329 328 325 323 321 318 315 314 314
307 307 309 310 312 315 321 321 320 317 312 317 318 317 320 319 319 321 320 314 317 320 320 319 319 320 322 324 325 324 324 321 319 318 317 315 314 313
303 304 305 307 307 309 310 313 318 318 314 316 317 318 314 315 315 316 317 317 318 316 319 318 318 318 320 321 321 320 319 318 317 316 315 314 313 311
298 300 301 303 304 306 304 304 306 307 312 313 316 311 312 313 315 314 314 315 317 316 316 317 317 317 318 318 317 316 315 315 314 313 313 312 311 309
297 297 298 300 300 299 300 303 304 306 305 305 312 311 311 308 308 310 311 312 312 312 316 316 317 317 316 315 314 313 312 311 310 309 309 308 307 306
295 295 295 296 295 297 298 299 301 301 303 303 304 304 303 303 305 303 301 302 305 306 312 314 315 314 313 313 311 309 307 307 307 306 305 303 302 301
292 292 294 295 296 298 296 297 297 296 298 299 300 301 300 299 300 302 303 301 299 301 304 306 309 309 310 310 308 306 306 305 305 304 302 301 299 299
290 291 292 293 294 295 297 298 297 294 294 295 296 298 301 302 302 301 300 295 293 299 301 302 306 305 306 307 307 305 304 304 303 302 301 300 299 298
290 290 290 291 293 291 293 295 295 297 296 294 294 297 299 302 304 300 299 297 299 298 303 300 300 301 304 305 306 304 304 303 302 301 300 299 298 296
290 290 289 289 290 291 290 289 290 291 293 294 294 295 297 299 299 300 302 302 296 295 302 299 298 299 301 302 305 304 303 302 301 301 299 298 297 296
289 290 289 289 290 291 288 287 287 288 291 293 294 296 297 299 299 299 296 297 294 290 297 295 290 292 293 294 302 304 303 302 301 301 299 298 296 297
288 288 291 289 290 290 287 286 284 285 287 288 289 290 293 295 299 298 298 295 296 289 291 293 287 287 287 288 293 301 301 302 301 300 299 297 297 291
286 287 288 290 290 290 290 287 286 288 287 286 286 287 290 291 293 296 297 296 296 295 292 296 288 287 287 284 288 295 298 298 297 297 298 297 296 293
286 287 288 290 290 290 290 290 289 289 286 285 285 286 287 288 290 292 294 296 298 298 294 297 287 293 288 283 284 288 294 296 295 292 292 296 296 295
287 288 290 289 290 289 289 289 288 286 285 284 284 284 286 288 288 290 291 289 289 288 292 295 294 291 292 288 283 286 289 291 292 291 291 291 290 288
288 288 288 289 289 288 288 287 286 285 284 283 284 285 286 286 286 289 289 290 288 290 285 290 292 290 290 289 288 286 290 285 289 290 290 289 288 288
287 286 285 285 284 285 285 285 285 284 283 284 283 283 283 284 285 288 288 288 286 288 283 284 286 289 288 287 286 287 288 286 289 288 288 286 287 287
284 283 283 283 283 282 282 282 283 284 283 283 282 283 283 283 283 285 286 285 285 286 286 282 284 284 284 284 287 287 287 286 287 287 288 285 284 285
282 282 282 283 282 282 282 282 281 283 283 282 281 281 283 284 284 284 285 285 284 285 286 283 285 286 283 283 281 289 286 286 286 285 286 285 284 284
282 281 282 282 282 281 281 281 281 281 282 281 281 281 283 283 283 284 284 284 284 285 282 283 284 285 286 282 279 281 287 285 285 285 285 283 285 289
280 280 281 281 280 281 281 281 280 281 281 281 281 281 282 283 283 284 285 287 286 284 281 281 284 287 284 284 280 280 282 285 286 285 284 282 280 279
279 279 280 280 280 280 280 280 280 280 280 280 280 281 282 283 282 284 284 284 284 284 283 284 284 284 285 283 279 278 280 283 286 288 287 286 281 277
279 279 279 279 280 280 279 279 279 279 280 281 280 281 282 281 282 284 284 284 284 283 282 281 283 284 284 282 280 279 280 281 282 281 282 286 286 288

GFSNE_sfc_thetae_114.txt.gz
Theta_e
308 307 308 310 310 311 312 313 316 310 313 316 315 320 320 323 324 324 323 318 322 325 327 327 324 325 325 327 328 329 329 329 329 327 325 321 319 317
304 304 304 306 307 308 309 308 308 307 310 318 319 320 320 320 321 323 322 315 318 321 322 321 320 320 321 322 323 325 325 326 326 325 323 321 318 316
299 299 300 303 303 305 303 304 305 305 303 306 312 318 316 318 317 320 319 319 319 317 320 320 319 319 319 319 320 321 323 325 325 324 322 320 318 316
295 296 297 299 300 299 300 301 302 304 302 300 305 307 314 316 317 316 316 317 317 316 316 317 317 317 317 317 317 319 320 321 320 320 319 317 316 315
293 294 294 295 295 294 297 296 299 299 300 300 300 304 308 308 310 310 311 314 313 312 316 316 317 317 316 316 316 317 317 316 315 314 314 314 314 312
292 292 292 293 292 292 295 294 296 295 295 296 297 300 303 303 304 304 304 304 307 306 310 312 314 315 315 316 315 314 313 313 312 312 311 310 309 309
290 291 291 292 294 294 292 293 294 292 292 292 293 294 297 299 301 303 302 304 301 302 305 308 310 313 314 314 313 310 310 310 309 309 309 307 305 304
288 289 290 292 292 293 294 294 292 290 290 290 290 291 293 296 299 299 300 296 294 300 301 303 307 306 309 312 310 309 308 308 307 307 306 305 302 301
287 288 288 289 290 289 290 290 291 292 292 289 288 289 289 292 294 293 294 295 298 301 300 299 299 301 305 306 308 307 307 306 305 305 304 303 301 300
287 287 286 286 287 288 287 285 286 287 288 289 287 287 289 291 292 293 294 294 297 297 300 296 296 299 299 303 306 306 305 305 304 303 302 302 301 299
286 286 286 286 289 290 286 284 284 285 289 290 290 291 291 292 292 291 289 289 290 292 294 295 292 293 293 297 303 305 305 304 303 303 302 301 300 298
285 286 289 288 290 290 286 284 283 283 284 285 285 286 288 287 291 290 289 288 289 289 292 292 288 288 288 290 292 303 303 304 303 302 302 300 299 293
284 284 285 289 290 290 290 287 285 288 286 283 283 283 284 286 287 289 288 289 288 288 294 293 288 287 287 286 288 294 301 300 300 300 302 300 299 294
284 285 284 289 290 290 289 290 290 289 282 281 280 281 282 283 284 286 287 287 289 290 293 295 287 292 287 285 285 287 296 298 298 296 296 298 298 297
285 286 289 290 290 289 289 289 289 282 281 280 280 280 280 281 282 283 286 287 288 289 291 292 292 292 293 292 288 286 291 293 296 294 293 293 293 293
285 284 287 288 288 287 286 286 283 282 280 280 281 281 280 278 281 283 283 285 285 286 289 289 289 291 291 293 292 286 292 289 293 293 292 292 292 291
285 284 281 281 281 282 283 282 282 280 280 280 280 281 281 281 281 283 284 284 283 284 286 286 287 289 291 290 289 290 290 288 291 291 290 288 288 289
283 281 281 280 280 280 281 279 279 281 280 281 280 279 279 279 279 281 283 283 282 283 285 287 285 285 284 285 290 288 290 289 289 290 290 287 286 287
280 280 280 280 281 281 280 279 279 279 279 277 279 278 278 279 280 280 281 282 283 284 284 286 284 285 284 283 284 289 288 288 288 287 288 288 286 285
279 278 278 279 279 279 278 278 279 278 276 278 276 276 279 278 278 279 280 281 283 284 284 285 284 285 285 285 281 284 287 287 287 286 285 284 286 289
278 278 278 278 278 278 278 278 278 279 279 279 279 279 279 278 278 279 281 283 284 284 283 284 284 289 286 284 281 281 282 288 290 287 285 284 282 282
277 278 279 278 277 277 278 278 278 278 277 276 277 278 279 279 279 279 280 280 282 283 284 284 285 284 283 284 282 279 281 283 286 288 288 285 283 279
276 276 276 276 276 277 276 276 276 275 275 275 276 278 278 279 280 280 281 282 283 283 283 281 282 284 283 282 281 280 281 282 282 282 282 286 285 286

GFSNE_sfc_thetae_117.txt.gz
Theta_e
304 304 304 305 306 307 308 306 304 304 308 314 316 319 320 317 321 323 322 320 321 324 326 326 324 324 326 329 330 330 330 329 329 330 331 328 326 326
300 300 302 303 303 305 302 303 304 302 301 307 308 310 312 317 319 320 324 316 319 321 321 320 321 321 322 323 325 325 326 326 327 330 330 328 326 324
296 297 297 298 301 298 298 301 300 301 298 301 304 307 307 308 311 318 321 322 323 317 321 320 320 319 319 319 320 321 322 324 326 328 329 327 325 322
292 294 294 295 296 294 296 296 297 298 297 295 299 301 302 307 308 310 315 318 319 317 317 318 317 317 317 318 317 318 318 320 321 324 325 325 323 321
290 290 291 292 291 292 294 293 295 295 295 294 294 298 301 304 304 307 307 309 312 310 315 316 317 317 316 316 316 315 314 315 316 318 320 320 320 319
290 291 291 290 289 290 292 292 294 293 293 292 292 293 295 298 300 301 300 304 305 307 309 311 313 314 315 316 315 313 311 313 315 317 317 315 314 315
288 289 290 291 293 291 291 290 289 288 289 290 289 289 290 292 292 294 294 296 299 303 303 305 308 310 311 312 311 310 311 312 314 315 315 313 312 312
286 287 289 291 291 291 291 291 289 287 286 285 286 286 287 288 290 290 291 290 291 301 299 300 305 306 308 311 311 310 310 311 312 313 312 311 309 309
286 286 286 288 289 287 289 289 289 289 289 286 284 284 284 286 287 287 287 288 289 294 295 294 300 302 306 307 308 309 310 310 310 309 308 307 306 305
285 285 284 285 286 287 286 285 285 286 286 287 285 285 286 288 288 287 287 287 289 290 294 292 298 298 300 303 306 307 307 307 307 306 306 305 303 303
285 285 286 285 289 291 285 284 283 284 289 290 291 291 290 290 290 287 285 284 284 286 289 291 293 292 293 296 300 306 306 306 306 305 305 303 302 302
286 286 289 287 290 290 286 285 282 283 283 283 284 284 286 286 289 286 286 284 284 283 287 288 289 289 290 291 293 301 304 305 305 304 304 303 301 297
285 284 285 288 289 290 290 287 285 286 286 283 281 281 282 283 284 285 285 284 283 283 287 288 287 288 287 289 288 292 299 301 302 302 303 302 300 296
282 283 284 288 289 289 289 290 290 289 284 281 280 280 280 280 281 281 282 282 283 283 286 287 285 287 287 288 288 288 293 299 300 298 298 301 301 298
284 285 287 287 288 287 288 288 288 282 280 279 279 279 280 281 281 279 281 282 283 285 287 287 287 287 288 287 288 287 289 291 297 297 296 296 296 294
284 283 285 287 287 286 285 284 283 282 280 279 279 280 280 276 278 278 279 281 282 282 284 287 287 287 286 287 289 290 290 289 294 295 295 295 295 294
284 282 281 280 280 280 281 282 282 280 279 279 279 279 280 280 280 279 279 279 280 281 282 284 287 288 288 287 287 290 292 292 292 293 292 291 292 293
282 280 278 279 280 280 279 280 280 281 279 279 277 276 277 278 277 278 279 277 277 279 281 283 285 285 285 286 290 288 291 291 291 292 291 290 288 290
276 277 277 278 278 279 279 279 278 278 278 276 271 272 275 276 277 276 276 277 278 279 280 283 284 283 281 280 286 291 288 290 289 289 290 290 288 287
277 276 276 277 277 277 277 277 277 277 274 274 273 272 273 276 276 275 276 276 277 278 280 282 284 284 282 281 283 285 288 290 289 289 288 286 287 291
276 276 276 277 277 277 277 276 276 275 276 275 271 269 274 275 276 277 277 280 280 278 278 279 283 289 286 286 283 282 285 287 291 289 287 286 283 283
276 276 276 276 276 275 275 275 275 276 275 273 273 273 274 275 276 277 277 277 278 278 279 282 285 285 284 283 282 283 282 284 289 291 290 288 284 281
277 277 277 276 276 275 275 274 274 274 274 274 273 274 274 276 276 277 278 278 279 279 280 281 283 284 283 282 283 281 282 283 284 283 283 288 288 288